Wetterdaten: Donnerstag, 28.09.2023
Datum Zeit Temp. Aussen Temp. o. S. Temp +5cm Feuchte Auss Luftdruck Regen Sonnenschein Regendauer Solar Windben Empfang
28.09.2023 00:00 18,8 C 17,8 C 14,4 C 83 % 1014,7 hPa 0,0 l/m 0 min 0 min 0 W/m 12,9 km/h (3 Bft) 97,87 %
28.09.2023 00:02 18,8 C 17,8 C 13,9 C 83 % 1014,6 hPa 0,0 l/m 0 min 0 min 0 W/m 6,4 km/h (2 Bft) 97,50 %
28.09.2023 00:04 18,8 C 17,8 C 13,9 C 83 % 1014,6 hPa 0,0 l/m 0 min 0 min 0 W/m 12,9 km/h (3 Bft) 97,92 %
28.09.2023 00:10 18,7 C 17,8 C 13,9 C 84 % 1014,5 hPa 0,0 l/m 0 min 0 min 0 W/m 12,9 km/h (3 Bft) 96,38 %
28.09.2023 00:12 18,7 C 17,8 C 13,9 C 84 % 1014,5 hPa 0,0 l/m 0 min 0 min 0 W/m 9,7 km/h (2 Bft) 97,87 %
28.09.2023 00:16 18,7 C 17,8 C 13,9 C 84 % 1014,5 hPa 0,0 l/m 0 min 0 min 0 W/m 16,1 km/h (3 Bft) 98,94 %
28.09.2023 00:18 18,7 C 17,8 C 13,9 C 84 % 1014,5 hPa 0,0 l/m 0 min 0 min 0 W/m 6,4 km/h (2 Bft) 97,87 %
28.09.2023 00:20 18,7 C 17,8 C 13,9 C 84 % 1014,5 hPa 0,0 l/m 0 min 0 min 0 W/m 6,4 km/h (2 Bft) 97,87 %
28.09.2023 00:22 18,7 C 17,8 C 13,9 C 84 % 1014,5 hPa 0,0 l/m 0 min 0 min 0 W/m 6,4 km/h (2 Bft) 97,87 %
28.09.2023 00:24 18,7 C 17,8 C 13,9 C 84 % 1014,5 hPa 0,0 l/m 0 min 0 min 0 W/m 6,4 km/h (2 Bft) 97,87 %
28.09.2023 00:26 18,7 C 17,8 C 13,9 C 84 % 1014,4 hPa 0,0 l/m 0 min 0 min 0 W/m 3,2 km/h (1 Bft) 97,83 %
28.09.2023 00:28 18,7 C 17,8 C 13,9 C 84 % 1014,5 hPa 0,0 l/m 0 min 0 min 0 W/m 6,4 km/h (2 Bft) 97,87 %
28.09.2023 00:30 18,7 C 17,8 C 13,9 C 84 % 1014,5 hPa 0,0 l/m 0 min 0 min 0 W/m 6,4 km/h (2 Bft) 95,74 %
28.09.2023 00:32 18,7 C 17,8 C 13,9 C 84 % 1014,5 hPa 0,0 l/m 0 min 0 min 0 W/m 6,4 km/h (2 Bft) 95,74 %
28.09.2023 00:34 18,6 C 17,8 C 13,9 C 84 % 1014,5 hPa 0,0 l/m 0 min 0 min 0 W/m 12,9 km/h (3 Bft) 97,87 %
28.09.2023 00:36 18,6 C 17,8 C 13,9 C 84 % 1014,5 hPa 0,0 l/m 0 min 0 min 0 W/m 6,4 km/h (2 Bft) 97,87 %
28.09.2023 00:38 18,6 C 17,8 C 13,9 C 85 % 1014,4 hPa 0,0 l/m 0 min 0 min 0 W/m 6,4 km/h (2 Bft) 97,87 %
28.09.2023 00:40 18,6 C 17,8 C 13,9 C 85 % 1014,4 hPa 0,0 l/m 0 min 0 min 0 W/m 12,9 km/h (3 Bft) 97,87 %
28.09.2023 00:42 18,6 C 17,8 C 13,9 C 85 % 1014,5 hPa 0,0 l/m 0 min 0 min 0 W/m 19,3 km/h (3 Bft) 97,87 %
28.09.2023 00:44 18,6 C 17,8 C 13,9 C 84 % 1014,5 hPa 0,0 l/m 0 min 0 min 0 W/m 12,9 km/h (3 Bft) 97,83 %
28.09.2023 00:46 18,6 C 17,8 C 13,9 C 84 % 1014,5 hPa 0,0 l/m 0 min 0 min 0 W/m 16,1 km/h (3 Bft) 97,87 %
28.09.2023 00:48 18,6 C 17,8 C 13,9 C 84 % 1014,5 hPa 0,0 l/m 0 min 0 min 0 W/m 6,4 km/h (2 Bft) 100,00 %
28.09.2023 00:50 18,6 C 17,8 C 13,9 C 84 % 1014,5 hPa 0,0 l/m 0 min 0 min 0 W/m 6,4 km/h (2 Bft) 97,87 %
28.09.2023 00:52 18,6 C 17,8 C 13,9 C 84 % 1014,4 hPa 0,0 l/m 0 min 0 min 0 W/m 6,4 km/h (2 Bft) 100,00 %
28.09.2023 00:54 18,6 C 17,8 C 13,9 C 84 % 1014,4 hPa 0,0 l/m 0 min 0 min 0 W/m 6,4 km/h (2 Bft) 95,83 %
28.09.2023 00:56 18,6 C 17,8 C 13,9 C 84 % 1014,4 hPa 0,0 l/m 0 min 0 min 0 W/m 9,7 km/h (2 Bft) 97,87 %
28.09.2023 00:58 18,6 C 17,8 C 13,9 C 84 % 1014,3 hPa 0,0 l/m 0 min 0 min 0 W/m 6,4 km/h (2 Bft) 97,92 %
28.09.2023 01:00 18,6 C 17,8 C 13,9 C 84 % 1014,3 hPa 0,0 l/m 0 min 0 min 0 W/m 12,9 km/h (3 Bft) 97,92 %
28.09.2023 01:02 18,6 C 17,8 C 13,9 C 84 % 1014,2 hPa 0,0 l/m 0 min 0 min 0 W/m 12,9 km/h (3 Bft) 97,87 %
28.09.2023 01:04 18,6 C 17,8 C 13,9 C 84 % 1014,2 hPa 0,0 l/m 0 min 0 min 0 W/m 6,4 km/h (2 Bft) 97,62 %
28.09.2023 01:08 18,6 C 17,8 C 13,9 C 84 % 1014,2 hPa 0,0 l/m 0 min 0 min 0 W/m 19,3 km/h (3 Bft) 96,12 %
28.09.2023 01:09 18,6 C 17,8 C 13,9 C 84 % 1014,1 hPa 0,0 l/m 0 min 0 min 0 W/m 6,4 km/h (2 Bft) 95,65 %
28.09.2023 01:10 18,6 C 17,8 C 13,9 C 84 % 1014,1 hPa 0,0 l/m 0 min 0 min 0 W/m 19,3 km/h (3 Bft) 99,12 %
28.09.2023 01:14 18,6 C 17,8 C 13,9 C 84 % 1014,1 hPa 0,0 l/m 0 min 0 min 0 W/m 9,7 km/h (2 Bft) 90,91 %
28.09.2023 01:16 18,6 C 17,8 C 13,9 C 84 % 1014,1 hPa 0,0 l/m 0 min 0 min 0 W/m 6,4 km/h (2 Bft) 97,87 %
28.09.2023 01:18 18,6 C 17,8 C 13,9 C 84 % 1014,0 hPa 0,0 l/m 0 min 0 min 0 W/m 12,9 km/h (3 Bft) 95,74 %
28.09.2023 01:20 18,6 C 17,8 C 13,9 C 84 % 1013,9 hPa 0,0 l/m 0 min 0 min 0 W/m 9,7 km/h (2 Bft) 97,87 %
28.09.2023 01:22 18,6 C 17,8 C 13,9 C 84 % 1013,9 hPa 0,0 l/m 0 min 0 min 0 W/m 12,9 km/h (3 Bft) 97,87 %
28.09.2023 01:24 18,6 C 17,8 C 13,9 C 84 % 1013,9 hPa 0,0 l/m 0 min 0 min 0 W/m 6,4 km/h (2 Bft) 97,87 %
28.09.2023 01:26 18,6 C 17,8 C 13,9 C 84 % 1014,1 hPa 0,0 l/m 0 min 0 min 0 W/m 6,4 km/h (2 Bft) 97,87 %
28.09.2023 01:28 18,6 C 17,8 C 13,9 C 84 % 1014,2 hPa 0,0 l/m 0 min 0 min 0 W/m 12,9 km/h (3 Bft) 95,65 %
28.09.2023 01:30 18,6 C 17,8 C 13,9 C 84 % 1014,2 hPa 0,0 l/m 0 min 0 min 0 W/m 12,9 km/h (3 Bft) 97,87 %
28.09.2023 01:32 18,6 C 17,8 C 13,9 C 84 % 1014,3 hPa 0,0 l/m 0 min 0 min 0 W/m 6,4 km/h (2 Bft) 95,74 %
28.09.2023 01:34 18,6 C 17,8 C 13,9 C 84 % 1014,2 hPa 0,0 l/m 0 min 0 min 0 W/m 6,4 km/h (2 Bft) 97,87 %
28.09.2023 01:36 18,7 C 17,8 C 14,4 C 84 % 1014,3 hPa 0,0 l/m 0 min 0 min 0 W/m 6,4 km/h (2 Bft) 97,87 %
28.09.2023 01:38 18,7 C 17,8 C 13,9 C 84 % 1014,4 hPa 0,0 l/m 0 min 0 min 0 W/m 6,4 km/h (2 Bft) 100,00 %
28.09.2023 01:40 18,7 C 17,8 C 13,9 C 84 % 1014,5 hPa 0,0 l/m 0 min 0 min 0 W/m 6,4 km/h (2 Bft) 100,00 %
28.09.2023 01:42 18,7 C 17,8 C 13,9 C 84 % 1014,5 hPa 0,0 l/m 0 min 0 min 0 W/m 6,4 km/h (2 Bft) 97,87 %
28.09.2023 01:44 18,7 C 17,8 C 13,9 C 84 % 1014,6 hPa 0,0 l/m 0 min 0 min 0 W/m 12,9 km/h (3 Bft) 100,00 %
28.09.2023 01:46 18,7 C 17,8 C 13,9 C 83 % 1014,6 hPa 0,0 l/m 0 min 0 min 0 W/m 6,4 km/h (2 Bft) 100,00 %
28.09.2023 01:48 18,7 C 17,8 C 13,9 C 83 % 1014,6 hPa 0,0 l/m 0 min 0 min 0 W/m 12,9 km/h (3 Bft) 100,00 %
28.09.2023 01:50 18,7 C 17,8 C 13,9 C 83 % 1014,6 hPa 0,0 l/m 0 min 0 min 0 W/m 6,4 km/h (2 Bft) 97,87 %
28.09.2023 01:52 18,7 C 17,8 C 13,9 C 83 % 1014,6 hPa 0,0 l/m 0 min 0 min 0 W/m 12,9 km/h (3 Bft) 100,00 %
28.09.2023 01:54 18,7 C 17,8 C 13,9 C 83 % 1014,6 hPa 0,0 l/m 0 min 0 min 0 W/m 6,4 km/h (2 Bft) 100,00 %
28.09.2023 01:56 18,7 C 17,8 C 13,9 C 83 % 1014,6 hPa 0,0 l/m 0 min 0 min 0 W/m 6,4 km/h (2 Bft) 100,00 %
28.09.2023 01:58 18,7 C 17,8 C 13,9 C 83 % 1014,7 hPa 0,0 l/m 0 min 0 min 0 W/m 6,4 km/h (2 Bft) 100,00 %
28.09.2023 02:00 18,7 C 17,8 C 13,9 C 83 % 1014,8 hPa 0,0 l/m 0 min 0 min 0 W/m 6,4 km/h (2 Bft) 100,00 %
28.09.2023 02:02 18,7 C 17,8 C 13,9 C 83 % 1014,8 hPa 0,0 l/m 0 min 0 min 0 W/m 16,1 km/h (3 Bft) 96,88 %
28.09.2023 02:04 18,7 C 17,8 C 13,9 C 83 % 1014,8 hPa 0,0 l/m 0 min 0 min 0 W/m 12,9 km/h (3 Bft) 100,00 %
28.09.2023 02:06 18,7 C 17,8 C 13,9 C 83 % 1014,8 hPa 0,0 l/m 0 min 0 min 0 W/m 12,9 km/h (3 Bft) 97,87 %
28.09.2023 02:08 18,7 C 17,8 C 13,9 C 83 % 1014,7 hPa 0,0 l/m 0 min 0 min 0 W/m 12,9 km/h (3 Bft) 100,00 %
28.09.2023 02:10 18,7 C 17,8 C 13,9 C 83 % 1014,8 hPa 0,0 l/m 0 min 0 min 0 W/m 16,1 km/h (3 Bft) 97,87 %
28.09.2023 02:14 18,6 C 17,8 C 13,9 C 84 % 1014,8 hPa 0,0 l/m 0 min 0 min 0 W/m 12,9 km/h (3 Bft) 97,92 %
28.09.2023 02:16 18,6 C 17,8 C 13,9 C 84 % 1014,8 hPa 0,0 l/m 0 min 0 min 0 W/m 6,4 km/h (2 Bft) 95,65 %
28.09.2023 02:18 18,6 C 17,8 C 13,9 C 84 % 1014,9 hPa 0,0 l/m 0 min 0 min 0 W/m 3,2 km/h (1 Bft) 98,00 %
28.09.2023 02:20 18,6 C 17,8 C 13,9 C 84 % 1014,8 hPa 0,0 l/m 0 min 0 min 0 W/m 6,4 km/h (2 Bft) 93,75 %
28.09.2023 02:22 18,6 C 17,8 C 13,9 C 84 % 1014,9 hPa 0,0 l/m 0 min 0 min 0 W/m 6,4 km/h (2 Bft) 95,74 %
28.09.2023 02:24 18,6 C 17,8 C 13,9 C 84 % 1014,9 hPa 0,0 l/m 0 min 0 min 0 W/m 6,4 km/h (2 Bft) 95,74 %
28.09.2023 02:26 18,6 C 17,8 C 13,9 C 84 % 1014,9 hPa 0,0 l/m 0 min 0 min 0 W/m 12,9 km/h (3 Bft) 95,74 %
28.09.2023 02:28 18,6 C 17,8 C 13,9 C 84 % 1014,9 hPa 0,0 l/m 0 min 0 min 0 W/m 16,1 km/h (3 Bft) 95,24 %
28.09.2023 02:30 18,5 C 17,8 C 13,9 C 84 % 1014,9 hPa 0,0 l/m 0 min 0 min 0 W/m 6,4 km/h (2 Bft) 94,00 %
28.09.2023 02:32 18,5 C 17,8 C 13,9 C 84 % 1014,9 hPa 0,0 l/m 0 min 0 min 0 W/m 12,9 km/h (3 Bft) 95,83 %
28.09.2023 02:34 18,5 C 17,8 C 13,9 C 84 % 1014,9 hPa 0,0 l/m 0 min 0 min 0 W/m 6,4 km/h (2 Bft) 95,74 %
28.09.2023 02:36 18,4 C 17,8 C 13,9 C 84 % 1014,8 hPa 0,0 l/m 0 min 0 min 0 W/m 6,4 km/h (2 Bft) 95,35 %
28.09.2023 02:38 18,4 C 17,8 C 13,9 C 84 % 1014,7 hPa 0,0 l/m 0 min 0 min 0 W/m 6,4 km/h (2 Bft) 95,92 %
28.09.2023 02:40 18,4 C 17,2 C 13,9 C 84 % 1014,8 hPa 0,0 l/m 0 min 0 min 0 W/m 12,9 km/h (3 Bft) 95,83 %
28.09.2023 02:42 18,4 C 17,2 C 13,9 C 84 % 1014,8 hPa 0,0 l/m 0 min 0 min 0 W/m 6,4 km/h (2 Bft) 95,74 %
28.09.2023 02:44 18,4 C 17,2 C 13,9 C 84 % 1014,8 hPa 0,0 l/m 0 min 0 min 0 W/m 6,4 km/h (2 Bft) 95,35 %
28.09.2023 02:46 18,4 C 17,2 C 13,9 C 84 % 1014,9 hPa 0,0 l/m 0 min 0 min 0 W/m 6,4 km/h (2 Bft) 96,00 %
28.09.2023 02:48 18,4 C 17,2 C 13,9 C 84 % 1014,8 hPa 0,0 l/m 0 min 0 min 0 W/m 12,9 km/h (3 Bft) 97,87 %
28.09.2023 02:50 18,4 C 17,2 C 13,9 C 84 % 1014,9 hPa 0,0 l/m 0 min 0 min 0 W/m 12,9 km/h (3 Bft) 95,83 %
28.09.2023 02:52 18,3 C 17,2 C 13,9 C 84 % 1014,9 hPa 0,0 l/m 0 min 0 min 0 W/m 6,4 km/h (2 Bft) 95,65 %
28.09.2023 02:54 18,3 C 17,2 C 13,9 C 84 % 1014,9 hPa 0,0 l/m 0 min 0 min 0 W/m 16,1 km/h (3 Bft) 100,00 %
28.09.2023 02:56 18,3 C 17,2 C 13,9 C 84 % 1014,9 hPa 0,0 l/m 0 min 0 min 0 W/m 12,9 km/h (3 Bft) 95,74 %
28.09.2023 02:58 18,3 C 17,2 C 13,9 C 84 % 1014,9 hPa 0,0 l/m 0 min 0 min 0 W/m 12,9 km/h (3 Bft) 96,00 %
28.09.2023 03:00 18,3 C 17,2 C 13,9 C 84 % 1014,9 hPa 0,0 l/m 0 min 0 min 0 W/m 16,1 km/h (3 Bft) 97,87 %
28.09.2023 03:02 18,3 C 17,2 C 13,9 C 84 % 1014,9 hPa 0,0 l/m 0 min 0 min 0 W/m 6,4 km/h (2 Bft) 97,87 %
28.09.2023 03:04 18,3 C 17,2 C 13,9 C 84 % 1015,0 hPa 0,0 l/m 0 min 0 min 0 W/m 12,9 km/h (3 Bft) 98,11 %
28.09.2023 03:06 18,3 C 17,2 C 13,9 C 84 % 1014,9 hPa 0,0 l/m 0 min 0 min 0 W/m 3,2 km/h (1 Bft) 97,87 %
28.09.2023 03:08 18,3 C 17,2 C 13,9 C 84 % 1014,8 hPa 0,0 l/m 0 min 0 min 0 W/m 6,4 km/h (2 Bft) 100,00 %
28.09.2023 03:10 18,3 C 17,2 C 13,9 C 84 % 1014,9 hPa 0,0 l/m 0 min 0 min 0 W/m 6,4 km/h (2 Bft) 100,00 %
28.09.2023 03:12 18,3 C 17,2 C 13,9 C 84 % 1014,9 hPa 0,0 l/m 0 min 0 min 0 W/m 6,4 km/h (2 Bft) 100,00 %
28.09.2023 03:14 18,3 C 17,2 C 13,9 C 84 % 1014,8 hPa 0,0 l/m 0 min 0 min 0 W/m 6,4 km/h (2 Bft) 100,00 %
28.09.2023 03:16 18,3 C 17,2 C 13,3 C 84 % 1014,8 hPa 0,0 l/m 0 min 0 min 0 W/m 6,4 km/h (2 Bft) 100,00 %
28.09.2023 03:18 18,2 C 17,2 C 13,9 C 84 % 1014,8 hPa 0,0 l/m 0 min 0 min 0 W/m 12,9 km/h (3 Bft) 100,00 %
28.09.2023 03:20 18,2 C 17,2 C 13,9 C 84 % 1014,8 hPa 0,0 l/m 0 min 0 min 0 W/m 12,9 km/h (3 Bft) 100,00 %
28.09.2023 03:22 18,2 C 17,2 C 13,3 C 85 % 1014,8 hPa 0,0 l/m 0 min 0 min 0 W/m 6,4 km/h (2 Bft) 100,00 %
28.09.2023 03:24 18,2 C 17,2 C 13,3 C 85 % 1014,9 hPa 0,0 l/m 0 min 0 min 0 W/m 6,4 km/h (2 Bft) 100,00 %
28.09.2023 03:26 18,2 C 17,2 C 13,3 C 85 % 1014,9 hPa 0,0 l/m 0 min 0 min 0 W/m 6,4 km/h (2 Bft) 100,00 %
28.09.2023 03:28 18,2 C 17,2 C 13,3 C 85 % 1014,9 hPa 0,0 l/m 0 min 0 min 0 W/m 3,2 km/h (1 Bft) 100,00 %
28.09.2023 03:30 18,2 C 17,2 C 13,3 C 85 % 1015,0 hPa 0,0 l/m 0 min 0 min 0 W/m 6,4 km/h (2 Bft) 100,00 %
28.09.2023 03:32 18,2 C 17,2 C 13,3 C 85 % 1015,0 hPa 0,0 l/m 0 min 0 min 0 W/m 6,4 km/h (2 Bft) 97,87 %
28.09.2023 03:34 18,1 C 17,2 C 13,3 C 85 % 1015,0 hPa 0,0 l/m 0 min 0 min 0 W/m 3,2 km/h (1 Bft) 100,00 %
28.09.2023 03:36 18,1 C 17,2 C 13,3 C 85 % 1015,0 hPa 0,0 l/m 0 min 0 min 0 W/m 3,2 km/h (1 Bft) 91,43 %
28.09.2023 03:38 18,1 C 17,2 C 13,3 C 85 % 1015,0 hPa 0,0 l/m 0 min 0 min 0 W/m 3,2 km/h (1 Bft) 100,00 %
28.09.2023 03:40 18,1 C 17,2 C 13,3 C 85 % 1015,0 hPa 0,0 l/m 0 min 0 min 0 W/m 3,2 km/h (1 Bft) 95,74 %
28.09.2023 03:42 18,1 C 17,2 C 13,3 C 85 % 1014,9 hPa 0,0 l/m 0 min 0 min 0 W/m 6,4 km/h (2 Bft) 97,87 %
28.09.2023 03:44 18,1 C 17,2 C 13,3 C 85 % 1014,9 hPa 0,0 l/m 0 min 0 min 0 W/m 3,2 km/h (1 Bft) 97,83 %
28.09.2023 03:46 18,1 C 17,2 C 13,3 C 85 % 1014,9 hPa 0,0 l/m 0 min 0 min 0 W/m 16,1 km/h (3 Bft) 97,87 %
28.09.2023 03:48 18,1 C 17,2 C 13,3 C 85 % 1014,8 hPa 0,0 l/m 0 min 0 min 0 W/m 3,2 km/h (1 Bft) 95,74 %
28.09.2023 03:50 18,1 C 17,2 C 13,3 C 85 % 1014,9 hPa 0,0 l/m 0 min 0 min 0 W/m 3,2 km/h (1 Bft) 95,74 %
28.09.2023 03:52 18,0 C 17,2 C 13,3 C 85 % 1014,9 hPa 0,0 l/m 0 min 0 min 0 W/m 6,4 km/h (2 Bft) 97,87 %
28.09.2023 03:54 18,0 C 16,7 C 13,3 C 85 % 1014,9 hPa 0,0 l/m 0 min 0 min 0 W/m 3,2 km/h (1 Bft) 97,87 %
28.09.2023 03:56 18,0 C 16,7 C 13,3 C 85 % 1015,0 hPa 0,0 l/m 0 min 0 min 0 W/m 6,4 km/h (2 Bft) 93,62 %
28.09.2023 03:58 17,9 C 16,7 C 13,3 C 85 % 1015,0 hPa 0,0 l/m 0 min 0 min 0 W/m 6,4 km/h (2 Bft) 97,87 %
28.09.2023 04:00 17,9 C 16,7 C 13,3 C 85 % 1014,9 hPa 0,0 l/m 0 min 0 min 0 W/m 6,4 km/h (2 Bft) 96,08 %
28.09.2023 04:02 17,9 C 16,7 C 13,3 C 85 % 1015,0 hPa 0,0 l/m 0 min 0 min 0 W/m 6,4 km/h (2 Bft) 97,73 %
28.09.2023 04:04 17,9 C 16,7 C 13,3 C 85 % 1014,9 hPa 0,0 l/m 0 min 0 min 0 W/m 6,4 km/h (2 Bft) 96,00 %
28.09.2023 04:08 17,8 C 16,7 C 13,3 C 85 % 1014,8 hPa 0,0 l/m 0 min 0 min 0 W/m 12,9 km/h (3 Bft) 96,91 %
28.09.2023 04:10 17,8 C 16,7 C 13,3 C 85 % 1014,9 hPa 0,0 l/m 0 min 0 min 0 W/m 6,4 km/h (2 Bft) 95,74 %
28.09.2023 04:12 17,8 C 16,7 C 13,3 C 86 % 1014,9 hPa 0,0 l/m 0 min 0 min 0 W/m 12,9 km/h (3 Bft) 93,62 %
28.09.2023 04:14 17,8 C 16,7 C 13,3 C 86 % 1014,9 hPa 0,0 l/m 0 min 0 min 0 W/m 6,4 km/h (2 Bft) 95,74 %
28.09.2023 04:16 17,8 C 16,7 C 13,3 C 86 % 1014,9 hPa 0,0 l/m 0 min 0 min 0 W/m 3,2 km/h (1 Bft) 95,74 %
28.09.2023 04:18 17,7 C 16,7 C 13,3 C 86 % 1014,9 hPa 0,0 l/m 0 min 0 min 0 W/m 6,4 km/h (2 Bft) 93,62 %
28.09.2023 04:20 17,7 C 16,7 C 13,3 C 86 % 1015,1 hPa 0,0 l/m 0 min 0 min 0 W/m 3,2 km/h (1 Bft) 95,74 %
28.09.2023 04:22 17,7 C 16,7 C 13,3 C 86 % 1015,1 hPa 0,0 l/m 0 min 0 min 0 W/m 6,4 km/h (2 Bft) 91,49 %
28.09.2023 04:24 17,7 C 16,7 C 13,3 C 86 % 1015,1 hPa 0,0 l/m 0 min 0 min 0 W/m 6,4 km/h (2 Bft) 95,74 %
28.09.2023 04:26 17,7 C 16,7 C 13,3 C 86 % 1015,0 hPa 0,0 l/m 0 min 0 min 0 W/m 6,4 km/h (2 Bft) 95,65 %
28.09.2023 04:28 17,7 C 16,7 C 13,3 C 86 % 1015,1 hPa 0,0 l/m 0 min 0 min 0 W/m 6,4 km/h (2 Bft) 97,87 %
28.09.2023 04:30 17,6 C 16,7 C 12,8 C 86 % 1015,1 hPa 0,0 l/m 0 min 0 min 0 W/m 6,4 km/h (2 Bft) 97,87 %
28.09.2023 04:32 17,6 C 16,7 C 12,8 C 86 % 1015,1 hPa 0,0 l/m 0 min 0 min 0 W/m 6,4 km/h (2 Bft) 95,74 %
28.09.2023 04:34 17,6 C 16,7 C 12,8 C 86 % 1015,1 hPa 0,0 l/m 0 min 0 min 0 W/m 6,4 km/h (2 Bft) 95,74 %
28.09.2023 04:36 17,6 C 16,7 C 12,8 C 86 % 1015,1 hPa 0,0 l/m 0 min 0 min 0 W/m 6,4 km/h (2 Bft) 95,74 %
28.09.2023 04:38 17,6 C 16,7 C 12,8 C 86 % 1015,1 hPa 0,0 l/m 0 min 0 min 0 W/m 6,4 km/h (2 Bft) 97,87 %
28.09.2023 04:40 17,6 C 16,7 C 12,8 C 86 % 1015,2 hPa 0,0 l/m 0 min 0 min 0 W/m 3,2 km/h (1 Bft) 95,74 %
28.09.2023 04:42 17,6 C 16,7 C 12,8 C 86 % 1015,2 hPa 0,0 l/m 0 min 0 min 0 W/m 3,2 km/h (1 Bft) 100,00 %
28.09.2023 04:44 17,6 C 16,7 C 12,8 C 86 % 1015,2 hPa 0,0 l/m 0 min 0 min 0 W/m 3,2 km/h (1 Bft) 100,00 %
28.09.2023 04:46 17,5 C 16,7 C 12,8 C 86 % 1015,2 hPa 0,0 l/m 0 min 0 min 0 W/m 3,2 km/h (1 Bft) 100,00 %
28.09.2023 04:48 17,5 C 16,7 C 12,8 C 86 % 1015,2 hPa 0,0 l/m 0 min 0 min 0 W/m 6,4 km/h (2 Bft) 100,00 %
28.09.2023 04:50 17,4 C 16,1 C 12,8 C 86 % 1015,2 hPa 0,0 l/m 0 min 0 min 0 W/m 3,2 km/h (1 Bft) 100,00 %
28.09.2023 04:52 17,4 C 16,1 C 12,8 C 86 % 1015,2 hPa 0,0 l/m 0 min 0 min 0 W/m 6,4 km/h (2 Bft) 97,87 %
28.09.2023 04:54 17,4 C 16,1 C 12,8 C 87 % 1015,3 hPa 0,0 l/m 0 min 0 min 0 W/m 6,4 km/h (2 Bft) 100,00 %
28.09.2023 04:56 17,4 C 16,1 C 12,8 C 87 % 1015,4 hPa 0,0 l/m 0 min 0 min 0 W/m 9,7 km/h (2 Bft) 100,00 %
28.09.2023 04:58 17,3 C 16,1 C 12,8 C 87 % 1015,4 hPa 0,0 l/m 0 min 0 min 0 W/m 6,4 km/h (2 Bft) 100,00 %
28.09.2023 05:00 17,3 C 16,1 C 12,8 C 87 % 1015,5 hPa 0,0 l/m 0 min 0 min 0 W/m 3,2 km/h (1 Bft) 100,00 %
28.09.2023 05:02 17,3 C 16,1 C 12,8 C 87 % 1015,4 hPa 0,0 l/m 0 min 0 min 0 W/m 3,2 km/h (1 Bft) 93,62 %
28.09.2023 05:04 17,3 C 16,1 C 12,2 C 87 % 1015,4 hPa 0,0 l/m 0 min 0 min 0 W/m 6,4 km/h (2 Bft) 100,00 %
28.09.2023 05:06 17,3 C 16,1 C 12,2 C 87 % 1015,5 hPa 0,0 l/m 0 min 0 min 0 W/m 6,4 km/h (2 Bft) 100,00 %
28.09.2023 05:08 17,3 C 16,1 C 12,2 C 87 % 1015,5 hPa 0,0 l/m 0 min 0 min 0 W/m 3,2 km/h (1 Bft) 95,74 %
28.09.2023 05:10 17,2 C 16,1 C 12,2 C 87 % 1015,6 hPa 0,0 l/m 0 min 0 min 0 W/m 0,0 km/h (0 Bft) 97,87 %
28.09.2023 05:12 17,2 C 15,6 C 12,2 C 87 % 1015,5 hPa 0,0 l/m 0 min 0 min 0 W/m 3,2 km/h (1 Bft) 97,87 %
28.09.2023 05:14 17,2 C 15,6 C 12,2 C 87 % 1015,5 hPa 0,0 l/m 0 min 0 min 0 W/m 3,2 km/h (1 Bft) 97,87 %
28.09.2023 05:16 17,2 C 15,6 C 12,2 C 87 % 1015,5 hPa 0,0 l/m 0 min 0 min 0 W/m 3,2 km/h (1 Bft) 93,62 %
28.09.2023 05:18 17,1 C 16,1 C 12,2 C 87 % 1015,5 hPa 0,0 l/m 0 min 0 min 0 W/m 6,4 km/h (2 Bft) 93,62 %
28.09.2023 05:20 17,1 C 16,1 C 12,2 C 87 % 1015,5 hPa 0,0 l/m 0 min 0 min 0 W/m 6,4 km/h (2 Bft) 97,87 %
28.09.2023 05:22 17,1 C 16,1 C 12,2 C 88 % 1015,6 hPa 0,0 l/m 0 min 0 min 0 W/m 3,2 km/h (1 Bft) 95,65 %
28.09.2023 05:24 17,1 C 16,1 C 12,2 C 88 % 1015,6 hPa 0,0 l/m 0 min 0 min 0 W/m 6,4 km/h (2 Bft) 97,87 %
28.09.2023 05:26 17,1 C 16,1 C 12,2 C 88 % 1015,6 hPa 0,0 l/m 0 min 0 min 0 W/m 3,2 km/h (1 Bft) 97,87 %
28.09.2023 05:28 17,1 C 16,1 C 12,2 C 88 % 1015,6 hPa 0,0 l/m 0 min 0 min 0 W/m 3,2 km/h (1 Bft) 97,87 %
28.09.2023 05:30 17,0 C 15,6 C 12,2 C 88 % 1015,6 hPa 0,0 l/m 0 min 0 min 0 W/m 0,0 km/h (0 Bft) 97,87 %
28.09.2023 05:32 17,0 C 15,6 C 12,2 C 88 % 1015,5 hPa 0,0 l/m 0 min 0 min 0 W/m 3,2 km/h (1 Bft) 97,87 %
28.09.2023 05:34 17,0 C 15,6 C 12,2 C 88 % 1015,5 hPa 0,0 l/m 0 min 0 min 0 W/m 6,4 km/h (2 Bft) 95,74 %
28.09.2023 05:36 16,9 C 16,1 C 12,2 C 88 % 1015,5 hPa 0,0 l/m 0 min 0 min 0 W/m 6,4 km/h (2 Bft) 97,87 %
28.09.2023 05:38 16,9 C 16,1 C 12,2 C 88 % 1015,6 hPa 0,0 l/m 0 min 0 min 0 W/m 3,2 km/h (1 Bft) 95,74 %
28.09.2023 05:40 16,9 C 16,1 C 12,2 C 88 % 1015,5 hPa 0,0 l/m 0 min 0 min 0 W/m 3,2 km/h (1 Bft) 97,87 %
28.09.2023 05:42 16,9 C 16,1 C 12,2 C 88 % 1015,5 hPa 0,0 l/m 0 min 0 min 0 W/m 3,2 km/h (1 Bft) 93,62 %
28.09.2023 05:44 16,9 C 15,6 C 12,2 C 88 % 1015,6 hPa 0,0 l/m 0 min 0 min 0 W/m 3,2 km/h (1 Bft) 97,87 %
28.09.2023 05:46 16,9 C 15,6 C 12,2 C 88 % 1015,7 hPa 0,0 l/m 0 min 0 min 0 W/m 3,2 km/h (1 Bft) 97,83 %
28.09.2023 05:48 16,8 C 15,6 C 12,2 C 88 % 1015,7 hPa 0,0 l/m 0 min 0 min 0 W/m 3,2 km/h (1 Bft) 95,74 %
28.09.2023 05:50 16,8 C 15,6 C 12,2 C 88 % 1015,7 hPa 0,0 l/m 0 min 0 min 0 W/m 0,0 km/h (0 Bft) 97,87 %
28.09.2023 05:52 16,8 C 15,6 C 12,2 C 88 % 1015,7 hPa 0,0 l/m 0 min 0 min 0 W/m 0,0 km/h (0 Bft) 97,87 %
28.09.2023 05:54 16,8 C 15,6 C 12,2 C 88 % 1015,8 hPa 0,0 l/m 0 min 0 min 0 W/m 0,0 km/h (0 Bft) 100,00 %
28.09.2023 05:56 16,8 C 15,6 C 12,2 C 88 % 1015,9 hPa 0,0 l/m 0 min 0 min 0 W/m 3,2 km/h (1 Bft) 97,87 %
28.09.2023 05:58 16,8 C 15,6 C 12,2 C 88 % 1015,9 hPa 0,0 l/m 0 min 0 min 0 W/m 3,2 km/h (1 Bft) 97,87 %
28.09.2023 06:00 16,8 C 15,6 C 12,2 C 88 % 1015,9 hPa 0,0 l/m 0 min 0 min 0 W/m 0,0 km/h (0 Bft) 97,87 %
28.09.2023 06:02 16,8 C 15,6 C 12,2 C 88 % 1015,9 hPa 0,0 l/m 0 min 0 min 0 W/m 3,2 km/h (1 Bft) 95,65 %
28.09.2023 06:04 16,7 C 15,6 C 12,2 C 88 % 1015,9 hPa 0,0 l/m 0 min 0 min 0 W/m 3,2 km/h (1 Bft) 97,67 %
28.09.2023 06:08 16,7 C 15,6 C 11,7 C 88 % 1015,9 hPa 0,0 l/m 0 min 0 min 0 W/m 3,2 km/h (1 Bft) 96,81 %
28.09.2023 06:10 16,7 C 15,6 C 11,7 C 88 % 1016,0 hPa 0,0 l/m 0 min 0 min 0 W/m 0,0 km/h (0 Bft) 97,87 %
28.09.2023 06:12 16,7 C 15,6 C 11,7 C 88 % 1016,0 hPa 0,0 l/m 0 min 0 min 0 W/m 3,2 km/h (1 Bft) 97,87 %
28.09.2023 06:16 16,6 C 15,6 C 11,7 C 89 % 1016,0 hPa 0,0 l/m 0 min 0 min 0 W/m 3,2 km/h (1 Bft) 95,79 %
28.09.2023 06:18 16,6 C 15,6 C 11,7 C 89 % 1016,0 hPa 0,0 l/m 0 min 0 min 0 W/m 3,2 km/h (1 Bft) 97,87 %
28.09.2023 06:20 16,6 C 15,6 C 11,7 C 89 % 1016,0 hPa 0,0 l/m 0 min 0 min 0 W/m 3,2 km/h (1 Bft) 97,87 %
28.09.2023 06:22 16,6 C 15,6 C 11,7 C 89 % 1015,9 hPa 0,0 l/m 0 min 0 min 0 W/m 3,2 km/h (1 Bft) 97,87 %
28.09.2023 06:24 16,6 C 15,6 C 11,7 C 89 % 1016,0 hPa 0,0 l/m 0 min 0 min 0 W/m 0,0 km/h (0 Bft) 97,87 %
28.09.2023 06:26 16,6 C 15,6 C 11,7 C 89 % 1016,0 hPa 0,0 l/m 0 min 0 min 0 W/m 3,2 km/h (1 Bft) 95,74 %
28.09.2023 06:28 16,5 C 15,6 C 11,7 C 89 % 1015,9 hPa 0,0 l/m 0 min 0 min 0 W/m 3,2 km/h (1 Bft) 97,83 %
28.09.2023 06:30 16,5 C 15,6 C 11,7 C 89 % 1015,9 hPa 0,0 l/m 0 min 0 min 0 W/m 0,0 km/h (0 Bft) 100,00 %
28.09.2023 06:32 16,5 C 15,0 C 11,7 C 89 % 1016,0 hPa 0,0 l/m 0 min 0 min 0 W/m 3,2 km/h (1 Bft) 100,00 %
28.09.2023 06:34 16,5 C 15,0 C 11,7 C 89 % 1016,1 hPa 0,0 l/m 0 min 0 min 0 W/m 3,2 km/h (1 Bft) 100,00 %
28.09.2023 06:36 16,5 C 15,0 C 11,7 C 89 % 1016,1 hPa 0,0 l/m 0 min 0 min 0 W/m 0,0 km/h (0 Bft) 97,87 %
28.09.2023 06:38 16,4 C 15,0 C 11,7 C 89 % 1016,1 hPa 0,0 l/m 0 min 0 min 0 W/m 3,2 km/h (1 Bft) 95,74 %
28.09.2023 06:40 16,4 C 15,0 C 11,7 C 89 % 1016,1 hPa 0,0 l/m 0 min 0 min 0 W/m 3,2 km/h (1 Bft) 95,74 %
28.09.2023 06:42 16,4 C 15,0 C 11,7 C 89 % 1016,1 hPa 0,0 l/m 0 min 0 min 0 W/m 0,0 km/h (0 Bft) 97,87 %
28.09.2023 06:44 16,4 C 15,0 C 11,7 C 89 % 1016,1 hPa 0,0 l/m 0 min 0 min 0 W/m 3,2 km/h (1 Bft) 97,87 %
28.09.2023 06:46 16,4 C 15,0 C 11,7 C 89 % 1016,2 hPa 0,0 l/m 0 min 0 min 0 W/m 0,0 km/h (0 Bft) 97,87 %
28.09.2023 06:48 16,4 C 15,0 C 11,1 C 89 % 1016,2 hPa 0,0 l/m 0 min 0 min 0 W/m 0,0 km/h (0 Bft) 97,87 %
28.09.2023 06:50 16,3 C 15,0 C 11,1 C 89 % 1016,2 hPa 0,0 l/m 0 min 0 min 0 W/m 0,0 km/h (0 Bft) 97,87 %
28.09.2023 06:52 16,3 C 15,0 C 11,1 C 89 % 1016,2 hPa 0,0 l/m 0 min 0 min 0 W/m 0,0 km/h (0 Bft) 97,87 %
28.09.2023 06:54 16,3 C 15,0 C 11,1 C 89 % 1016,2 hPa 0,0 l/m 0 min 0 min 0 W/m 0,0 km/h (0 Bft) 97,87 %
28.09.2023 06:56 16,3 C 15,0 C 11,1 C 89 % 1016,3 hPa 0,0 l/m 0 min 0 min 0 W/m 3,2 km/h (1 Bft) 97,87 %
28.09.2023 06:58 16,3 C 15,0 C 11,1 C 89 % 1016,3 hPa 0,0 l/m 0 min 0 min 0 W/m 0,0 km/h (0 Bft) 93,62 %
28.09.2023 07:00 16,3 C 15,0 C 11,1 C 89 % 1016,2 hPa 0,0 l/m 0 min 0 min 0 W/m 0,0 km/h (0 Bft) 97,87 %
28.09.2023 07:02 16,2 C 15,0 C 11,1 C 89 % 1016,3 hPa 0,0 l/m 0 min 0 min 0 W/m 0,0 km/h (0 Bft) 97,87 %
28.09.2023 07:04 16,2 C 15,0 C 11,1 C 89 % 1016,2 hPa 0,0 l/m 0 min 0 min 0 W/m 0,0 km/h (0 Bft) 98,00 %
28.09.2023 07:08 16,2 C 15,0 C 11,1 C 90 % 1016,3 hPa 0,0 l/m 0 min 0 min 0 W/m 0,0 km/h (0 Bft) 96,88 %
28.09.2023 07:09 16,2 C 15,0 C 11,1 C 90 % 1016,3 hPa 0,0 l/m 0 min 0 min 0 W/m 0,0 km/h (0 Bft) 91,67 %
28.09.2023 07:12 16,2 C 15,0 C 11,1 C 90 % 1016,2 hPa 0,0 l/m 0 min 0 min 0 W/m 3,2 km/h (1 Bft) 79,66 %
28.09.2023 07:14 16,2 C 15,0 C 11,1 C 90 % 1016,2 hPa 0,0 l/m 0 min 0 min 0 W/m 3,2 km/h (1 Bft) 74,19 %
28.09.2023 07:16 16,2 C 15,0 C 11,1 C 90 % 1016,1 hPa 0,0 l/m 0 min 0 min 0 W/m 0,0 km/h (0 Bft) 97,87 %
28.09.2023 07:18 16,1 C 15,0 C 11,1 C 90 % 1016,2 hPa 0,0 l/m 0 min 0 min 0 W/m 0,0 km/h (0 Bft) 93,62 %
28.09.2023 07:20 16,1 C 15,0 C 11,1 C 90 % 1016,2 hPa 0,0 l/m 0 min 0 min 0 W/m 6,4 km/h (2 Bft) 97,87 %
28.09.2023 07:22 16,1 C 15,0 C 11,1 C 90 % 1016,2 hPa 0,0 l/m 0 min 0 min 0 W/m 3,2 km/h (1 Bft) 97,87 %
28.09.2023 07:24 16,1 C 15,0 C 11,1 C 90 % 1016,2 hPa 0,0 l/m 0 min 0 min 0 W/m 3,2 km/h (1 Bft) 97,87 %
28.09.2023 07:26 16,1 C 15,0 C 11,1 C 90 % 1016,2 hPa 0,0 l/m 0 min 0 min 0 W/m 0,0 km/h (0 Bft) 97,87 %
28.09.2023 07:28 16,1 C 15,0 C 11,1 C 90 % 1016,2 hPa 0,0 l/m 0 min 0 min 0 W/m 3,2 km/h (1 Bft) 97,87 %
28.09.2023 07:30 16,1 C 15,0 C 11,1 C 90 % 1016,2 hPa 0,0 l/m 0 min 0 min 0 W/m 0,0 km/h (0 Bft) 100,00 %
28.09.2023 07:32 16,1 C 15,0 C 11,1 C 91 % 1016,2 hPa 0,0 l/m 0 min 0 min 0 W/m 0,0 km/h (0 Bft) 97,83 %
28.09.2023 07:34 16,1 C 15,0 C 11,1 C 91 % 1016,3 hPa 0,0 l/m 0 min 0 min 0 W/m 0,0 km/h (0 Bft) 100,00 %
28.09.2023 07:36 16,1 C 15,0 C 11,1 C 91 % 1016,3 hPa 0,0 l/m 0 min 0 min 1 W/m 3,2 km/h (1 Bft) 100,00 %
28.09.2023 07:38 16,1 C 15,0 C 11,1 C 91 % 1016,4 hPa 0,0 l/m 0 min 0 min 5 W/m 6,4 km/h (2 Bft) 95,74 %
28.09.2023 07:40 16,1 C 15,0 C 11,1 C 91 % 1016,4 hPa 0,0 l/m 0 min 0 min 6 W/m 3,2 km/h (1 Bft) 97,87 %
28.09.2023 07:42 16,1 C 15,0 C 11,7 C 91 % 1016,4 hPa 0,0 l/m 0 min 0 min 8 W/m 3,2 km/h (1 Bft) 97,87 %
28.09.2023 07:44 16,1 C 15,0 C 11,1 C 91 % 1016,5 hPa 0,0 l/m 0 min 0 min 9 W/m 3,2 km/h (1 Bft) 95,74 %
28.09.2023 07:46 16,1 C 15,0 C 11,7 C 91 % 1016,5 hPa 0,0 l/m 0 min 0 min 12 W/m 3,2 km/h (1 Bft) 97,87 %
28.09.2023 07:48 16,1 C 15,0 C 11,7 C 91 % 1016,6 hPa 0,0 l/m 0 min 0 min 13 W/m 0,0 km/h (0 Bft) 95,74 %
28.09.2023 07:50 16,1 C 15,0 C 11,7 C 91 % 1016,6 hPa 0,0 l/m 0 min 0 min 15 W/m 9,7 km/h (2 Bft) 95,74 %
28.09.2023 07:52 16,1 C 15,6 C 11,7 C 91 % 1016,7 hPa 0,0 l/m 0 min 0 min 16 W/m 12,9 km/h (3 Bft) 93,62 %
28.09.2023 07:54 16,1 C 15,6 C 11,7 C 92 % 1016,8 hPa 0,0 l/m 0 min 0 min 17 W/m 9,7 km/h (2 Bft) 91,49 %
28.09.2023 07:56 16,2 C 15,6 C 11,7 C 92 % 1016,8 hPa 0,0 l/m 0 min 0 min 18 W/m 6,4 km/h (2 Bft) 95,74 %
28.09.2023 07:58 16,2 C 15,6 C 11,7 C 92 % 1016,8 hPa 0,0 l/m 0 min 0 min 19 W/m 3,2 km/h (1 Bft) 95,74 %
28.09.2023 08:00 16,2 C 15,6 C 11,7 C 92 % 1016,9 hPa 0,0 l/m 0 min 0 min 21 W/m 6,4 km/h (2 Bft) 94,34 %
28.09.2023 08:02 16,2 C 15,6 C 12,2 C 92 % 1016,9 hPa 0,0 l/m 0 min 0 min 21 W/m 3,2 km/h (1 Bft) 94,74 %
28.09.2023 08:04 16,2 C 15,6 C 12,2 C 92 % 1016,9 hPa 0,0 l/m 0 min 0 min 22 W/m 6,4 km/h (2 Bft) 95,65 %
28.09.2023 08:08 16,3 C 15,6 C 12,2 C 92 % 1016,9 hPa 0,0 l/m 0 min 0 min 24 W/m 6,4 km/h (2 Bft) 95,74 %
28.09.2023 08:10 16,3 C 15,6 C 12,2 C 92 % 1016,8 hPa 0,0 l/m 0 min 0 min 26 W/m 6,4 km/h (2 Bft) 95,65 %
28.09.2023 08:12 16,3 C 15,6 C 12,2 C 92 % 1016,9 hPa 0,0 l/m 0 min 0 min 28 W/m 3,2 km/h (1 Bft) 96,43 %
28.09.2023 08:14 16,3 C 15,6 C 12,2 C 92 % 1016,9 hPa 0,0 l/m 0 min 0 min 28 W/m 3,2 km/h (1 Bft) 95,74 %
28.09.2023 08:16 16,3 C 15,6 C 12,2 C 92 % 1017,0 hPa 0,0 l/m 0 min 0 min 30 W/m 9,7 km/h (2 Bft) 93,62 %
28.09.2023 08:18 16,4 C 15,6 C 12,2 C 92 % 1017,0 hPa 0,0 l/m 0 min 0 min 32 W/m 9,7 km/h (2 Bft) 97,87 %
28.09.2023 08:20 16,4 C 16,1 C 12,2 C 92 % 1017,0 hPa 0,0 l/m 0 min 0 min 33 W/m 6,4 km/h (2 Bft) 97,87 %
28.09.2023 08:22 16,4 C 16,1 C 12,2 C 92 % 1017,0 hPa 0,0 l/m 0 min 0 min 36 W/m 6,4 km/h (2 Bft) 97,87 %
28.09.2023 08:24 16,4 C 16,1 C 12,2 C 92 % 1017,0 hPa 0,0 l/m 0 min 0 min 38 W/m 9,7 km/h (2 Bft) 100,00 %
28.09.2023 08:26 16,4 C 16,1 C 12,2 C 92 % 1017,1 hPa 0,0 l/m 0 min 0 min 39 W/m 3,2 km/h (1 Bft) 97,96 %
28.09.2023 08:28 16,4 C 16,1 C 12,2 C 92 % 1017,0 hPa 0,0 l/m 0 min 0 min 40 W/m 6,4 km/h (2 Bft) 100,00 %
28.09.2023 08:30 16,5 C 16,1 C 12,2 C 92 % 1016,9 hPa 0,0 l/m 0 min 0 min 42 W/m 3,2 km/h (1 Bft) 100,00 %
28.09.2023 08:32 16,5 C 16,1 C 12,2 C 92 % 1017,0 hPa 0,0 l/m 0 min 0 min 44 W/m 3,2 km/h (1 Bft) 100,00 %
28.09.2023 08:34 16,5 C 16,1 C 12,2 C 92 % 1017,1 hPa 0,0 l/m 0 min 0 min 45 W/m 3,2 km/h (1 Bft) 100,00 %
28.09.2023 08:36 16,6 C 16,1 C 12,2 C 92 % 1017,1 hPa 0,0 l/m 0 min 0 min 46 W/m 3,2 km/h (1 Bft) 100,00 %
28.09.2023 08:38 16,6 C 16,1 C 12,2 C 92 % 1017,1 hPa 0,0 l/m 0 min 0 min 47 W/m 3,2 km/h (1 Bft) 100,00 %
28.09.2023 08:40 16,6 C 16,1 C 12,2 C 92 % 1017,1 hPa 0,0 l/m 0 min 0 min 48 W/m 0,0 km/h (0 Bft) 100,00 %
28.09.2023 08:42 16,6 C 16,1 C 12,2 C 92 % 1017,1 hPa 0,0 l/m 0 min 0 min 49 W/m 0,0 km/h (0 Bft) 100,00 %
28.09.2023 08:44 16,6 C 16,1 C 12,2 C 92 % 1017,2 hPa 0,0 l/m 0 min 0 min 51 W/m 3,2 km/h (1 Bft) 100,00 %
28.09.2023 08:46 16,6 C 16,1 C 12,2 C 92 % 1017,3 hPa 0,0 l/m 0 min 0 min 52 W/m 0,0 km/h (0 Bft) 100,00 %
28.09.2023 08:48 16,6 C 16,1 C 12,2 C 92 % 1017,3 hPa 0,0 l/m 0 min 0 min 53 W/m 0,0 km/h (0 Bft) 100,00 %
28.09.2023 08:50 16,6 C 16,1 C 12,2 C 92 % 1017,3 hPa 0,0 l/m 0 min 0 min 53 W/m 0,0 km/h (0 Bft) 100,00 %
28.09.2023 08:52 16,6 C 16,1 C 12,2 C 92 % 1017,4 hPa 0,0 l/m 0 min 0 min 53 W/m 0,0 km/h (0 Bft) 100,00 %
28.09.2023 08:54 16,7 C 16,1 C 12,2 C 92 % 1017,4 hPa 0,0 l/m 0 min 0 min 54 W/m 0,0 km/h (0 Bft) 100,00 %
28.09.2023 08:56 16,7 C 16,1 C 12,2 C 92 % 1017,3 hPa 0,0 l/m 0 min 0 min 54 W/m 3,2 km/h (1 Bft) 100,00 %
28.09.2023 08:58 16,7 C 16,1 C 12,2 C 92 % 1017,3 hPa 0,0 l/m 0 min 0 min 54 W/m 0,0 km/h (0 Bft) 100,00 %
28.09.2023 09:00 16,7 C 16,7 C 12,8 C 92 % 1017,4 hPa 0,0 l/m 0 min 0 min 54 W/m 0,0 km/h (0 Bft) 100,00 %
28.09.2023 09:02 16,7 C 16,7 C 12,8 C 92 % 1017,4 hPa 0,0 l/m 0 min 0 min 56 W/m 3,2 km/h (1 Bft) 100,00 %
28.09.2023 09:04 16,7 C 16,7 C 12,8 C 92 % 1017,4 hPa 0,0 l/m 0 min 0 min 55 W/m 0,0 km/h (0 Bft) 100,00 %
28.09.2023 09:08 16,8 C 16,7 C 12,8 C 92 % 1017,4 hPa 0,0 l/m 0 min 0 min 56 W/m 3,2 km/h (1 Bft) 100,00 %
28.09.2023 09:10 16,8 C 16,7 C 12,8 C 92 % 1017,4 hPa 0,0 l/m 0 min 0 min 58 W/m 0,0 km/h (0 Bft) 95,74 %
28.09.2023 09:12 16,8 C 16,7 C 12,8 C 92 % 1017,5 hPa 0,0 l/m 0 min 0 min 58 W/m 3,2 km/h (1 Bft) 100,00 %
28.09.2023 09:14 16,8 C 16,7 C 12,8 C 92 % 1017,5 hPa 0,0 l/m 0 min 0 min 58 W/m 3,2 km/h (1 Bft) 100,00 %
28.09.2023 09:16 16,9 C 16,7 C 12,8 C 92 % 1017,5 hPa 0,0 l/m 0 min 0 min 60 W/m 6,4 km/h (2 Bft) 100,00 %
28.09.2023 09:18 16,9 C 16,7 C 12,8 C 92 % 1017,6 hPa 0,0 l/m 0 min 0 min 60 W/m 6,4 km/h (2 Bft) 100,00 %
28.09.2023 09:20 16,9 C 16,7 C 12,8 C 92 % 1017,6 hPa 0,0 l/m 0 min 0 min 60 W/m 3,2 km/h (1 Bft) 97,87 %
28.09.2023 09:22 16,9 C 16,7 C 12,8 C 92 % 1017,7 hPa 0,0 l/m 0 min 0 min 62 W/m 6,4 km/h (2 Bft) 97,87 %
28.09.2023 09:24 17,0 C 17,2 C 12,8 C 93 % 1017,6 hPa 0,0 l/m 0 min 0 min 62 W/m 9,7 km/h (2 Bft) 100,00 %
28.09.2023 09:26 17,1 C 17,2 C 12,8 C 92 % 1017,7 hPa 0,0 l/m 0 min 0 min 62 W/m 3,2 km/h (1 Bft) 100,00 %
28.09.2023 09:28 17,1 C 17,2 C 12,8 C 92 % 1017,7 hPa 0,0 l/m 0 min 0 min 63 W/m 6,4 km/h (2 Bft) 97,83 %
28.09.2023 09:30 17,2 C 17,2 C 13,3 C 92 % 1017,7 hPa 0,0 l/m 0 min 0 min 64 W/m 6,4 km/h (2 Bft) 100,00 %
28.09.2023 09:32 17,2 C 17,2 C 13,3 C 92 % 1017,8 hPa 0,0 l/m 0 min 0 min 68 W/m 12,9 km/h (3 Bft) 95,74 %
28.09.2023 09:34 17,3 C 17,2 C 13,3 C 92 % 1017,8 hPa 0,0 l/m 0 min 0 min 75 W/m 6,4 km/h (2 Bft) 93,62 %
28.09.2023 09:36 17,3 C 17,2 C 13,3 C 92 % 1017,8 hPa 0,0 l/m 0 min 0 min 94 W/m 9,7 km/h (2 Bft) 97,87 %
28.09.2023 09:38 17,4 C 17,8 C 13,3 C 92 % 1017,7 hPa 0,0 l/m 0 min 0 min 113 W/m 12,9 km/h (3 Bft) 97,87 %
28.09.2023 09:40 17,5 C 17,8 C 13,3 C 92 % 1017,9 hPa 0,0 l/m 0 min 0 min 115 W/m 12,9 km/h (3 Bft) 97,87 %
28.09.2023 09:42 17,6 C 17,8 C 13,9 C 92 % 1017,9 hPa 0,0 l/m 0 min 0 min 104 W/m 0,0 km/h (0 Bft) 95,74 %
28.09.2023 09:44 17,7 C 17,8 C 13,9 C 92 % 1017,9 hPa 0,0 l/m 0 min 0 min 111 W/m 3,2 km/h (1 Bft) 95,74 %
28.09.2023 09:46 17,7 C 17,8 C 13,9 C 92 % 1017,9 hPa 0,0 l/m 0 min 0 min 130 W/m 6,4 km/h (2 Bft) 95,74 %
28.09.2023 09:48 17,8 C 18,3 C 13,9 C 92 % 1018,0 hPa 0,0 l/m 0 min 0 min 162 W/m 6,4 km/h (2 Bft) 95,65 %
28.09.2023 09:50 17,8 C 18,3 C 13,9 C 92 % 1017,9 hPa 0,0 l/m 0 min 0 min 164 W/m 9,7 km/h (2 Bft) 91,49 %
28.09.2023 09:52 17,9 C 18,3 C 13,9 C 92 % 1018,0 hPa 0,0 l/m 0 min 0 min 149 W/m 9,7 km/h (2 Bft) 100,00 %
28.09.2023 09:54 18,0 C 18,3 C 13,9 C 91 % 1018,0 hPa 0,0 l/m 0 min 0 min 148 W/m 16,1 km/h (3 Bft) 91,49 %
28.09.2023 09:56 18,1 C 18,3 C 14,4 C 91 % 1017,9 hPa 0,0 l/m 0 min 0 min 153 W/m 3,2 km/h (1 Bft) 95,65 %
28.09.2023 09:58 18,1 C 18,3 C 14,4 C 91 % 1017,8 hPa 0,0 l/m 0 min 0 min 151 W/m 6,4 km/h (2 Bft) 95,74 %
28.09.2023 10:00 18,2 C 18,3 C 14,4 C 91 % 1017,8 hPa 0,0 l/m 0 min 0 min 135 W/m 3,2 km/h (1 Bft) 95,74 %
28.09.2023 10:02 18,2 C 18,3 C 14,4 C 91 % 1017,8 hPa 0,0 l/m 0 min 0 min 120 W/m 3,2 km/h (1 Bft) 91,49 %
28.09.2023 10:04 18,2 C 18,3 C 14,4 C 91 % 1017,9 hPa 0,0 l/m 0 min 0 min 102 W/m 12,9 km/h (3 Bft) 96,00 %
28.09.2023 10:06 18,3 C 18,3 C 14,4 C 90 % 1017,8 hPa 0,0 l/m 0 min 0 min 97 W/m 6,4 km/h (2 Bft) 93,88 %
28.09.2023 10:08 18,3 C 18,3 C 13,9 C 90 % 1017,8 hPa 0,0 l/m 0 min 0 min 94 W/m 6,4 km/h (2 Bft) 95,74 %
28.09.2023 10:10 18,3 C 18,3 C 13,9 C 90 % 1017,8 hPa 0,0 l/m 0 min 0 min 91 W/m 6,4 km/h (2 Bft) 91,49 %
28.09.2023 10:12 18,3 C 18,3 C 13,9 C 90 % 1017,8 hPa 0,0 l/m 0 min 0 min 89 W/m 6,4 km/h (2 Bft) 95,74 %
28.09.2023 10:14 18,4 C 18,3 C 13,9 C 90 % 1017,9 hPa 0,0 l/m 0 min 0 min 83 W/m 9,7 km/h (2 Bft) 95,74 %
28.09.2023 10:16 18,4 C 18,3 C 13,9 C 90 % 1017,9 hPa 0,0 l/m 0 min 0 min 109 W/m 6,4 km/h (2 Bft) 100,00 %
28.09.2023 10:18 18,4 C 18,3 C 13,9 C 90 % 1017,9 hPa 0,0 l/m 0 min 0 min 103 W/m 6,4 km/h (2 Bft) 100,00 %
28.09.2023 10:20 18,5 C 18,9 C 14,4 C 90 % 1018,0 hPa 0,0 l/m 0 min 0 min 91 W/m 3,2 km/h (1 Bft) 100,00 %
28.09.2023 10:22 18,5 C 18,9 C 14,4 C 90 % 1018,0 hPa 0,0 l/m 0 min 0 min 94 W/m 9,7 km/h (2 Bft) 95,74 %
28.09.2023 10:24 18,6 C 18,9 C 14,4 C 90 % 1018,1 hPa 0,0 l/m 0 min 0 min 102 W/m 12,9 km/h (3 Bft) 95,74 %
28.09.2023 10:26 18,6 C 18,9 C 14,4 C 89 % 1018,1 hPa 0,0 l/m 0 min 0 min 115 W/m 12,9 km/h (3 Bft) 95,74 %
28.09.2023 10:28 18,6 C 18,9 C 14,4 C 89 % 1018,1 hPa 0,0 l/m 0 min 0 min 154 W/m 6,4 km/h (2 Bft) 97,87 %
28.09.2023 10:30 18,7 C 18,9 C 14,4 C 89 % 1018,1 hPa 0,0 l/m 0 min 0 min 109 W/m 9,7 km/h (2 Bft) 95,74 %
28.09.2023 10:32 18,7 C 18,9 C 14,4 C 89 % 1018,0 hPa 0,0 l/m 0 min 0 min 91 W/m 3,2 km/h (1 Bft) 97,87 %
28.09.2023 10:34 18,8 C 18,9 C 14,4 C 89 % 1018,0 hPa 0,0 l/m 0 min 0 min 90 W/m 6,4 km/h (2 Bft) 97,87 %
28.09.2023 10:36 18,8 C 18,9 C 14,4 C 89 % 1018,0 hPa 0,0 l/m 0 min 0 min 95 W/m 6,4 km/h (2 Bft) 95,65 %
28.09.2023 10:38 18,9 C 18,9 C 14,4 C 88 % 1018,1 hPa 0,0 l/m 0 min 0 min 100 W/m 6,4 km/h (2 Bft) 95,74 %
28.09.2023 10:40 18,9 C 18,9 C 14,4 C 88 % 1018,2 hPa 0,0 l/m 0 min 0 min 182 W/m 12,9 km/h (3 Bft) 95,74 %
28.09.2023 10:42 19,0 C 18,9 C 14,4 C 88 % 1018,3 hPa 0,0 l/m 0 min 0 min 192 W/m 6,4 km/h (2 Bft) 97,87 %
28.09.2023 10:44 19,0 C 18,9 C 14,4 C 88 % 1018,2 hPa 0,0 l/m 2 min 0 min 304 W/m 12,9 km/h (3 Bft) 96,00 %
28.09.2023 10:46 19,1 C 18,9 C 15,0 C 88 % 1018,3 hPa 0,0 l/m 0 min 0 min 204 W/m 16,1 km/h (3 Bft) 97,87 %
28.09.2023 10:48 19,1 C 19,4 C 15,0 C 88 % 1018,3 hPa 0,0 l/m 0 min 0 min 123 W/m 12,9 km/h (3 Bft) 97,87 %
28.09.2023 10:50 19,2 C 19,4 C 15,0 C 87 % 1018,4 hPa 0,0 l/m 0 min 0 min 144 W/m 12,9 km/h (3 Bft) 97,87 %
28.09.2023 10:52 19,2 C 19,4 C 15,0 C 87 % 1018,3 hPa 0,0 l/m 0 min 0 min 122 W/m 19,3 km/h (3 Bft) 95,74 %
28.09.2023 10:54 19,3 C 19,4 C 15,0 C 87 % 1018,3 hPa 0,0 l/m 0 min 0 min 125 W/m 12,9 km/h (3 Bft) 97,83 %
28.09.2023 10:56 19,3 C 19,4 C 15,0 C 86 % 1018,4 hPa 0,0 l/m 0 min 0 min 127 W/m 6,4 km/h (2 Bft) 97,87 %
28.09.2023 10:58 19,4 C 20,0 C 15,0 C 86 % 1018,4 hPa 0,0 l/m 0 min 0 min 140 W/m 9,7 km/h (2 Bft) 97,14 %
28.09.2023 11:00 19,4 C 20,0 C 15,0 C 86 % 1018,4 hPa 0,0 l/m 0 min 0 min 151 W/m 6,4 km/h (2 Bft) 95,74 %
28.09.2023 11:02 19,5 C 20,0 C 15,6 C 86 % 1018,3 hPa 0,0 l/m 0 min 0 min 177 W/m 9,7 km/h (2 Bft) 97,87 %
28.09.2023 11:04 19,6 C 20,6 C 15,6 C 86 % 1018,4 hPa 0,0 l/m 0 min 0 min 225 W/m 19,3 km/h (3 Bft) 98,11 %
28.09.2023 11:06 19,6 C 20,0 C 15,6 C 85 % 1018,4 hPa 0,0 l/m 0 min 0 min 193 W/m 16,1 km/h (3 Bft) 96,00 %
28.09.2023 11:08 19,6 C 20,0 C 15,6 C 84 % 1018,5 hPa 0,0 l/m 0 min 0 min 160 W/m 6,4 km/h (2 Bft) 97,87 %
28.09.2023 11:10 19,6 C 20,0 C 15,6 C 84 % 1018,5 hPa 0,0 l/m 0 min 0 min 180 W/m 22,5 km/h (4 Bft) 95,74 %
28.09.2023 11:12 19,7 C 20,6 C 15,6 C 84 % 1018,5 hPa 0,0 l/m 2 min 0 min 323 W/m 22,5 km/h (4 Bft) 97,87 %
28.09.2023 11:14 19,7 C 20,6 C 15,6 C 83 % 1018,5 hPa 0,0 l/m 2 min 0 min 302 W/m 16,1 km/h (3 Bft) 97,87 %
28.09.2023 11:16 19,7 C 20,6 C 15,6 C 83 % 1018,6 hPa 0,0 l/m 0 min 0 min 192 W/m 16,1 km/h (3 Bft) 97,87 %
28.09.2023 11:18 19,7 C 21,1 C 15,6 C 83 % 1018,6 hPa 0,0 l/m 2 min 0 min 281 W/m 6,4 km/h (2 Bft) 97,83 %
28.09.2023 11:20 19,8 C 21,1 C 15,6 C 83 % 1018,6 hPa 0,0 l/m 2 min 0 min 289 W/m 16,1 km/h (3 Bft) 100,00 %
28.09.2023 11:22 19,8 C 21,1 C 16,1 C 83 % 1018,6 hPa 0,0 l/m 0 min 0 min 234 W/m 9,7 km/h (2 Bft) 100,00 %
28.09.2023 11:24 19,8 C 21,1 C 16,7 C 82 % 1018,6 hPa 0,0 l/m 0 min 0 min 224 W/m 16,1 km/h (3 Bft) 97,87 %
28.09.2023 11:26 19,9 C 21,7 C 16,7 C 82 % 1018,7 hPa 0,0 l/m 0 min 0 min 221 W/m 9,7 km/h (2 Bft) 97,87 %
28.09.2023 11:28 19,9 C 22,2 C 17,2 C 82 % 1018,7 hPa 0,0 l/m 0 min 0 min 194 W/m 12,9 km/h (3 Bft) 100,00 %
28.09.2023 11:30 19,9 C 22,2 C 17,2 C 82 % 1018,7 hPa 0,0 l/m 0 min 0 min 205 W/m 16,1 km/h (3 Bft) 100,00 %
28.09.2023 11:32 20,0 C 22,2 C 17,8 C 82 % 1018,7 hPa 0,0 l/m 0 min 0 min 207 W/m 6,4 km/h (2 Bft) 100,00 %
28.09.2023 11:34 20,0 C 22,2 C 17,8 C 81 % 1018,7 hPa 0,0 l/m 0 min 0 min 225 W/m 12,9 km/h (3 Bft) 100,00 %
28.09.2023 11:36 20,1 C 22,2 C 17,8 C 81 % 1018,7 hPa 0,0 l/m 2 min 0 min 342 W/m 12,9 km/h (3 Bft) 95,65 %
28.09.2023 11:38 20,1 C 22,8 C 18,3 C 81 % 1018,7 hPa 0,0 l/m 2 min 0 min 444 W/m 12,9 km/h (3 Bft) 100,00 %
28.09.2023 11:40 20,1 C 23,9 C 18,9 C 81 % 1018,7 hPa 0,0 l/m 2 min 0 min 444 W/m 12,9 km/h (3 Bft) 100,00 %
28.09.2023 11:42 20,2 C 22,8 C 18,3 C 80 % 1018,7 hPa 0,0 l/m 2 min 0 min 381 W/m 12,9 km/h (3 Bft) 100,00 %
28.09.2023 11:44 20,2 C 23,3 C 18,3 C 80 % 1018,6 hPa 0,0 l/m 2 min 0 min 377 W/m 16,1 km/h (3 Bft) 100,00 %
28.09.2023 11:46 20,2 C 22,2 C 17,8 C 80 % 1018,7 hPa 0,0 l/m 2 min 0 min 559 W/m 12,9 km/h (3 Bft) 95,74 %
28.09.2023 11:48 20,2 C 21,7 C 17,8 C 80 % 1018,6 hPa 0,0 l/m 2 min 0 min 390 W/m 6,4 km/h (2 Bft) 93,62 %
28.09.2023 11:50 20,3 C 21,7 C 17,2 C 80 % 1018,6 hPa 0,0 l/m 2 min 0 min 269 W/m 12,9 km/h (3 Bft) 97,87 %
28.09.2023 11:52 20,3 C 21,1 C 17,2 C 80 % 1018,6 hPa 0,0 l/m 0 min 0 min 202 W/m 16,1 km/h (3 Bft) 97,87 %
28.09.2023 11:54 20,2 C 20,6 C 16,7 C 80 % 1018,6 hPa 0,0 l/m 0 min 0 min 215 W/m 9,7 km/h (2 Bft) 97,87 %
28.09.2023 11:56 20,2 C 20,6 C 16,7 C 80 % 1018,6 hPa 0,0 l/m 0 min 0 min 201 W/m 9,7 km/h (2 Bft) 97,83 %
28.09.2023 11:58 20,2 C 20,6 C 16,1 C 80 % 1018,7 hPa 0,0 l/m 0 min 0 min 182 W/m 6,4 km/h (2 Bft) 97,87 %
28.09.2023 12:00 20,2 C 20,0 C 16,1 C 80 % 1018,6 hPa 0,0 l/m 0 min 0 min 171 W/m 6,4 km/h (2 Bft) 97,87 %
28.09.2023 12:02 20,1 C 20,6 C 16,1 C 80 % 1018,7 hPa 0,0 l/m 0 min 0 min 209 W/m 6,4 km/h (2 Bft) 97,87 %
28.09.2023 12:04 20,2 C 21,1 C 16,1 C 80 % 1018,7 hPa 0,0 l/m 2 min 0 min 305 W/m 12,9 km/h (3 Bft) 94,12 %
28.09.2023 12:08 20,2 C 21,1 C 16,1 C 80 % 1018,7 hPa 0,0 l/m 4 min 0 min 293 W/m 16,1 km/h (3 Bft) 95,70 %
28.09.2023 12:10 20,3 C 21,1 C 16,7 C 80 % 1018,7 hPa 0,0 l/m 0 min 0 min 267 W/m 6,4 km/h (2 Bft) 95,74 %
28.09.2023 12:12 20,3 C 21,7 C 16,7 C 81 % 1018,7 hPa 0,0 l/m 0 min 0 min 241 W/m 6,4 km/h (2 Bft) 93,62 %
28.09.2023 12:16 20,4 C 21,1 C 16,7 C 80 % 1018,8 hPa 0,0 l/m 0 min 0 min 251 W/m 9,7 km/h (2 Bft) 96,77 %
28.09.2023 12:18 20,4 C 20,6 C 16,1 C 80 % 1018,8 hPa 0,0 l/m 0 min 0 min 199 W/m 12,9 km/h (3 Bft) 95,74 %
28.09.2023 12:20 20,4 C 20,6 C 16,1 C 80 % 1018,8 hPa 0,0 l/m 0 min 0 min 164 W/m 6,4 km/h (2 Bft) 95,74 %
28.09.2023 12:22 20,5 C 20,0 C 16,1 C 80 % 1018,8 hPa 0,0 l/m 0 min 0 min 163 W/m 9,7 km/h (2 Bft) 97,87 %
28.09.2023 12:24 20,5 C 20,0 C 16,1 C 80 % 1018,8 hPa 0,0 l/m 0 min 0 min 152 W/m 3,2 km/h (1 Bft) 97,87 %
28.09.2023 12:26 20,4 C 20,0 C 16,1 C 80 % 1018,7 hPa 0,0 l/m 0 min 0 min 173 W/m 6,4 km/h (2 Bft) 95,74 %
28.09.2023 12:28 20,4 C 20,0 C 16,1 C 80 % 1018,7 hPa 0,0 l/m 0 min 0 min 182 W/m 3,2 km/h (1 Bft) 97,87 %
28.09.2023 12:30 20,4 C 20,0 C 16,1 C 80 % 1018,7 hPa 0,0 l/m 0 min 0 min 186 W/m 6,4 km/h (2 Bft) 97,87 %
28.09.2023 12:32 20,4 C 20,0 C 16,1 C 80 % 1018,7 hPa 0,0 l/m 0 min 0 min 195 W/m 16,1 km/h (3 Bft) 97,87 %
28.09.2023 12:34 20,4 C 20,0 C 16,1 C 80 % 1018,7 hPa 0,0 l/m 0 min 0 min 209 W/m 3,2 km/h (1 Bft) 95,74 %
28.09.2023 12:36 20,4 C 20,6 C 16,1 C 80 % 1018,7 hPa 0,0 l/m 0 min 0 min 207 W/m 16,1 km/h (3 Bft) 97,83 %
28.09.2023 12:38 20,4 C 20,0 C 16,1 C 79 % 1018,8 hPa 0,0 l/m 0 min 0 min 200 W/m 12,9 km/h (3 Bft) 97,87 %
28.09.2023 12:40 20,4 C 20,0 C 16,1 C 79 % 1018,8 hPa 0,0 l/m 0 min 0 min 196 W/m 16,1 km/h (3 Bft) 97,87 %
28.09.2023 12:42 20,4 C 20,0 C 16,1 C 79 % 1018,8 hPa 0,0 l/m 0 min 0 min 182 W/m 6,4 km/h (2 Bft) 93,62 %
28.09.2023 12:44 20,4 C 20,0 C 16,1 C 79 % 1018,8 hPa 0,0 l/m 0 min 0 min 190 W/m 12,9 km/h (3 Bft) 97,87 %
28.09.2023 12:46 20,4 C 20,6 C 16,1 C 79 % 1018,7 hPa 0,0 l/m 0 min 0 min 219 W/m 6,4 km/h (2 Bft) 100,00 %
28.09.2023 12:48 20,4 C 20,6 C 16,1 C 79 % 1018,7 hPa 0,0 l/m 0 min 0 min 235 W/m 6,4 km/h (2 Bft) 100,00 %
28.09.2023 12:50 20,4 C 20,6 C 16,1 C 79 % 1018,7 hPa 0,0 l/m 0 min 0 min 230 W/m 6,4 km/h (2 Bft) 100,00 %
28.09.2023 12:52 20,4 C 20,6 C 16,1 C 79 % 1018,7 hPa 0,0 l/m 0 min 0 min 217 W/m 12,9 km/h (3 Bft) 100,00 %
28.09.2023 12:54 20,4 C 20,6 C 16,1 C 79 % 1018,7 hPa 0,0 l/m 0 min 0 min 209 W/m 12,9 km/h (3 Bft) 97,14 %
28.09.2023 12:56 20,5 C 20,6 C 16,1 C 79 % 1018,6 hPa 0,0 l/m 0 min 0 min 220 W/m 6,4 km/h (2 Bft) 100,00 %
28.09.2023 12:58 20,5 C 20,6 C 16,1 C 79 % 1018,6 hPa 0,0 l/m 0 min 0 min 224 W/m 9,7 km/h (2 Bft) 100,00 %
28.09.2023 13:00 20,6 C 20,6 C 16,1 C 79 % 1018,6 hPa 0,0 l/m 0 min 0 min 223 W/m 3,2 km/h (1 Bft) 100,00 %
28.09.2023 13:02 20,6 C 20,6 C 16,7 C 79 % 1018,7 hPa 0,0 l/m 0 min 0 min 233 W/m 6,4 km/h (2 Bft) 100,00 %
28.09.2023 13:04 20,6 C 20,6 C 16,7 C 80 % 1018,6 hPa 0,0 l/m 0 min 0 min 249 W/m 12,9 km/h (3 Bft) 100,00 %
28.09.2023 13:08 20,6 C 20,6 C 16,7 C 79 % 1018,5 hPa 0,0 l/m 0 min 0 min 239 W/m 6,4 km/h (2 Bft) 100,00 %
28.09.2023 13:10 20,6 C 21,1 C 16,7 C 79 % 1018,5 hPa 0,0 l/m 0 min 0 min 212 W/m 3,2 km/h (1 Bft) 100,00 %
28.09.2023 13:12 20,7 C 21,1 C 16,7 C 79 % 1018,5 hPa 0,0 l/m 0 min 0 min 225 W/m 3,2 km/h (1 Bft) 100,00 %
28.09.2023 13:14 20,7 C 21,1 C 16,7 C 79 % 1018,4 hPa 0,0 l/m 0 min 0 min 251 W/m 6,4 km/h (2 Bft) 97,87 %
28.09.2023 13:16 20,7 C 21,1 C 16,7 C 79 % 1018,5 hPa 0,0 l/m 0 min 0 min 280 W/m 6,4 km/h (2 Bft) 100,00 %
28.09.2023 13:18 20,7 C 21,1 C 16,7 C 79 % 1018,5 hPa 0,0 l/m 0 min 0 min 273 W/m 12,9 km/h (3 Bft) 100,00 %
28.09.2023 13:20 20,7 C 20,6 C 16,7 C 78 % 1018,6 hPa 0,0 l/m 0 min 0 min 258 W/m 12,9 km/h (3 Bft) 100,00 %
28.09.2023 13:22 20,7 C 21,1 C 16,7 C 78 % 1018,5 hPa 0,0 l/m 0 min 0 min 284 W/m 12,9 km/h (3 Bft) 100,00 %
28.09.2023 13:24 20,7 C 21,1 C 16,7 C 78 % 1018,5 hPa 0,0 l/m 0 min 0 min 267 W/m 16,1 km/h (3 Bft) 100,00 %
28.09.2023 13:26 20,8 C 21,1 C 16,7 C 78 % 1018,5 hPa 0,0 l/m 0 min 0 min 245 W/m 6,4 km/h (2 Bft) 100,00 %
28.09.2023 13:28 20,8 C 21,1 C 16,7 C 78 % 1018,5 hPa 0,0 l/m 0 min 0 min 270 W/m 12,9 km/h (3 Bft) 97,87 %
28.09.2023 13:30 20,9 C 21,7 C 16,7 C 79 % 1018,5 hPa 0,0 l/m 0 min 0 min 280 W/m 9,7 km/h (2 Bft) 100,00 %
28.09.2023 13:32 20,9 C 21,1 C 16,7 C 78 % 1018,5 hPa 0,0 l/m 0 min 0 min 261 W/m 12,9 km/h (3 Bft) 100,00 %
28.09.2023 13:34 20,9 C 21,1 C 16,7 C 78 % 1018,5 hPa 0,0 l/m 0 min 0 min 256 W/m 6,4 km/h (2 Bft) 100,00 %
28.09.2023 13:36 21,0 C 21,1 C 16,7 C 78 % 1018,4 hPa 0,0 l/m 0 min 0 min 247 W/m 9,7 km/h (2 Bft) 100,00 %
28.09.2023 13:38 21,1 C 21,1 C 16,7 C 78 % 1018,5 hPa 0,0 l/m 0 min 0 min 245 W/m 9,7 km/h (2 Bft) 95,74 %
28.09.2023 13:40 21,1 C 21,1 C 16,7 C 77 % 1018,5 hPa 0,0 l/m 0 min 0 min 225 W/m 12,9 km/h (3 Bft) 100,00 %
28.09.2023 13:42 21,1 C 21,1 C 16,7 C 77 % 1018,5 hPa 0,0 l/m 0 min 0 min 209 W/m 12,9 km/h (3 Bft) 100,00 %
28.09.2023 13:44 21,1 C 21,1 C 16,7 C 77 % 1018,4 hPa 0,0 l/m 0 min 0 min 215 W/m 12,9 km/h (3 Bft) 100,00 %
28.09.2023 13:46 21,1 C 21,1 C 16,7 C 77 % 1018,4 hPa 0,0 l/m 0 min 0 min 227 W/m 19,3 km/h (3 Bft) 100,00 %
28.09.2023 13:48 21,1 C 21,1 C 16,7 C 77 % 1018,4 hPa 0,0 l/m 0 min 0 min 224 W/m 12,9 km/h (3 Bft) 97,87 %
28.09.2023 13:50 21,1 C 21,1 C 17,2 C 77 % 1018,4 hPa 0,0 l/m 0 min 0 min 241 W/m 16,1 km/h (3 Bft) 95,74 %
28.09.2023 13:52 21,2 C 21,1 C 17,2 C 77 % 1018,4 hPa 0,0 l/m 0 min 0 min 265 W/m 12,9 km/h (3 Bft) 93,62 %
28.09.2023 13:54 21,2 C 21,1 C 17,2 C 77 % 1018,4 hPa 0,0 l/m 0 min 0 min 246 W/m 9,7 km/h (2 Bft) 95,74 %
28.09.2023 13:56 21,2 C 21,1 C 17,2 C 77 % 1018,4 hPa 0,0 l/m 0 min 0 min 244 W/m 12,9 km/h (3 Bft) 95,74 %
28.09.2023 13:58 21,2 C 21,1 C 17,2 C 77 % 1018,4 hPa 0,0 l/m 0 min 0 min 272 W/m 12,9 km/h (3 Bft) 93,62 %
28.09.2023 14:00 21,3 C 21,7 C 17,2 C 77 % 1018,4 hPa 0,0 l/m 0 min 0 min 285 W/m 6,4 km/h (2 Bft) 95,65 %
28.09.2023 14:02 21,3 C 21,7 C 17,2 C 77 % 1018,3 hPa 0,0 l/m 0 min 0 min 290 W/m 6,4 km/h (2 Bft) 95,74 %
28.09.2023 14:04 21,3 C 21,7 C 17,2 C 77 % 1018,4 hPa 0,0 l/m 0 min 0 min 275 W/m 6,4 km/h (2 Bft) 95,74 %
28.09.2023 14:06 21,3 C 21,7 C 17,2 C 77 % 1018,4 hPa 0,0 l/m 0 min 0 min 237 W/m 6,4 km/h (2 Bft) 93,62 %
28.09.2023 14:08 21,3 C 21,7 C 17,2 C 77 % 1018,4 hPa 0,0 l/m 0 min 0 min 236 W/m 6,4 km/h (2 Bft) 95,74 %
28.09.2023 14:10 21,4 C 21,1 C 17,2 C 77 % 1018,4 hPa 0,0 l/m 0 min 0 min 240 W/m 12,9 km/h (3 Bft) 93,62 %
28.09.2023 14:12 21,4 C 21,1 C 17,2 C 77 % 1018,4 hPa 0,0 l/m 0 min 0 min 253 W/m 12,9 km/h (3 Bft) 95,74 %
28.09.2023 14:14 21,3 C 21,1 C 17,2 C 76 % 1018,4 hPa 0,0 l/m 0 min 0 min 260 W/m 16,1 km/h (3 Bft) 95,74 %
28.09.2023 14:16 21,3 C 21,1 C 17,2 C 76 % 1018,3 hPa 0,0 l/m 0 min 0 min 233 W/m 6,4 km/h (2 Bft) 95,74 %
28.09.2023 14:18 21,3 C 21,1 C 17,2 C 77 % 1018,4 hPa 0,0 l/m 0 min 0 min 214 W/m 12,9 km/h (3 Bft) 95,74 %
28.09.2023 14:20 21,3 C 21,7 C 17,2 C 77 % 1018,3 hPa 0,0 l/m 2 min 0 min 487 W/m 16,1 km/h (3 Bft) 95,74 %
28.09.2023 14:22 21,4 C 22,2 C 17,2 C 77 % 1018,3 hPa 0,0 l/m 2 min 0 min 512 W/m 12,9 km/h (3 Bft) 95,65 %
28.09.2023 14:24 21,4 C 22,2 C 17,2 C 77 % 1018,3 hPa 0,0 l/m 2 min 0 min 465 W/m 9,7 km/h (2 Bft) 94,34 %
28.09.2023 14:26 21,4 C 22,2 C 17,2 C 77 % 1018,3 hPa 0,0 l/m 2 min 0 min 424 W/m 3,2 km/h (1 Bft) 97,87 %
28.09.2023 14:28 21,4 C 22,2 C 17,2 C 76 % 1018,2 hPa 0,0 l/m 2 min 0 min 428 W/m 9,7 km/h (2 Bft) 95,12 %
28.09.2023 14:30 21,5 C 22,2 C 17,2 C 77 % 1018,2 hPa 0,0 l/m 2 min 0 min 348 W/m 6,4 km/h (2 Bft) 97,87 %
28.09.2023 14:32 21,5 C 21,7 C 17,2 C 76 % 1018,3 hPa 0,0 l/m 2 min 0 min 362 W/m 12,9 km/h (3 Bft) 96,23 %
28.09.2023 14:34 21,5 C 22,2 C 17,2 C 76 % 1018,3 hPa 0,0 l/m 2 min 0 min 457 W/m 6,4 km/h (2 Bft) 95,74 %
28.09.2023 14:36 21,5 C 22,2 C 17,2 C 77 % 1018,3 hPa 0,0 l/m 2 min 0 min 399 W/m 12,9 km/h (3 Bft) 95,74 %
28.09.2023 14:38 21,6 C 22,2 C 17,2 C 76 % 1018,2 hPa 0,0 l/m 2 min 0 min 350 W/m 12,9 km/h (3 Bft) 95,12 %
28.09.2023 14:40 21,6 C 22,2 C 17,8 C 76 % 1018,2 hPa 0,0 l/m 2 min 0 min 312 W/m 6,4 km/h (2 Bft) 95,74 %
28.09.2023 14:42 21,6 C 22,2 C 17,8 C 76 % 1018,2 hPa 0,0 l/m 2 min 0 min 311 W/m 6,4 km/h (2 Bft) 95,74 %
28.09.2023 14:44 21,6 C 22,2 C 17,8 C 76 % 1018,2 hPa 0,0 l/m 0 min 0 min 268 W/m 3,2 km/h (1 Bft) 95,65 %
28.09.2023 14:46 21,6 C 21,7 C 17,2 C 76 % 1018,2 hPa 0,0 l/m 0 min 0 min 239 W/m 16,1 km/h (3 Bft) 91,49 %
28.09.2023 14:48 21,6 C 21,7 C 17,2 C 76 % 1018,2 hPa 0,0 l/m 0 min 0 min 251 W/m 6,4 km/h (2 Bft) 97,87 %
28.09.2023 14:50 21,6 C 21,7 C 17,2 C 76 % 1018,2 hPa 0,0 l/m 0 min 0 min 249 W/m 9,7 km/h (2 Bft) 95,74 %
28.09.2023 14:52 21,6 C 21,1 C 17,2 C 76 % 1018,1 hPa 0,0 l/m 0 min 0 min 247 W/m 6,4 km/h (2 Bft) 95,74 %
28.09.2023 14:54 21,6 C 21,1 C 17,2 C 76 % 1018,1 hPa 0,0 l/m 0 min 0 min 230 W/m 12,9 km/h (3 Bft) 97,87 %
28.09.2023 14:56 21,5 C 21,1 C 17,2 C 76 % 1018,2 hPa 0,0 l/m 0 min 0 min 193 W/m 12,9 km/h (3 Bft) 95,74 %
28.09.2023 14:58 21,5 C 21,1 C 17,2 C 77 % 1018,1 hPa 0,0 l/m 0 min 0 min 185 W/m 3,2 km/h (1 Bft) 97,87 %
28.09.2023 15:00 21,4 C 21,1 C 17,2 C 77 % 1018,2 hPa 0,0 l/m 0 min 0 min 176 W/m 12,9 km/h (3 Bft) 97,87 %
28.09.2023 15:02 21,4 C 21,1 C 17,2 C 77 % 1018,2 hPa 0,0 l/m 0 min 0 min 200 W/m 6,4 km/h (2 Bft) 96,23 %
28.09.2023 15:04 21,4 C 21,1 C 17,2 C 77 % 1018,2 hPa 0,0 l/m 0 min 0 min 234 W/m 12,9 km/h (3 Bft) 97,83 %
28.09.2023 15:10 21,3 C 21,1 C 17,2 C 77 % 1018,2 hPa 0,0 l/m 0 min 0 min 222 W/m 12,9 km/h (3 Bft) 97,71 %
28.09.2023 15:12 21,3 C 21,1 C 17,2 C 77 % 1018,2 hPa 0,0 l/m 0 min 0 min 230 W/m 6,4 km/h (2 Bft) 97,87 %
28.09.2023 15:14 21,3 C 21,1 C 17,2 C 78 % 1018,2 hPa 0,0 l/m 0 min 0 min 207 W/m 12,9 km/h (3 Bft) 100,00 %
28.09.2023 15:16 21,3 C 21,1 C 17,2 C 78 % 1018,2 hPa 0,0 l/m 0 min 0 min 194 W/m 6,4 km/h (2 Bft) 100,00 %
28.09.2023 15:18 21,3 C 21,1 C 17,2 C 78 % 1018,1 hPa 0,0 l/m 0 min 0 min 180 W/m 6,4 km/h (2 Bft) 97,87 %
28.09.2023 15:20 21,3 C 21,1 C 17,2 C 78 % 1018,1 hPa 0,0 l/m 0 min 0 min 166 W/m 6,4 km/h (2 Bft) 100,00 %
28.09.2023 15:22 21,3 C 21,1 C 17,2 C 78 % 1018,2 hPa 0,0 l/m 0 min 0 min 171 W/m 16,1 km/h (3 Bft) 97,87 %
28.09.2023 15:24 21,3 C 21,1 C 17,2 C 78 % 1018,0 hPa 0,0 l/m 0 min 0 min 200 W/m 6,4 km/h (2 Bft) 97,87 %
28.09.2023 15:26 21,3 C 21,1 C 17,2 C 78 % 1018,0 hPa 0,0 l/m 0 min 0 min 222 W/m 6,4 km/h (2 Bft) 97,83 %
28.09.2023 15:28 21,3 C 21,1 C 17,2 C 78 % 1018,1 hPa 0,0 l/m 0 min 0 min 232 W/m 9,7 km/h (2 Bft) 100,00 %
28.09.2023 15:30 21,3 C 21,1 C 17,2 C 78 % 1018,0 hPa 0,0 l/m 0 min 0 min 212 W/m 6,4 km/h (2 Bft) 100,00 %
28.09.2023 15:32 21,3 C 21,1 C 17,2 C 78 % 1018,1 hPa 0,0 l/m 2 min 0 min 300 W/m 6,4 km/h (2 Bft) 97,87 %
28.09.2023 15:34 21,3 C 21,1 C 17,2 C 78 % 1018,1 hPa 0,0 l/m 0 min 0 min 210 W/m 12,9 km/h (3 Bft) 97,87 %
28.09.2023 15:36 21,3 C 21,1 C 16,7 C 78 % 1018,1 hPa 0,0 l/m 0 min 0 min 177 W/m 6,4 km/h (2 Bft) 97,87 %
28.09.2023 15:38 21,3 C 21,1 C 16,7 C 78 % 1018,1 hPa 0,0 l/m 0 min 0 min 184 W/m 9,7 km/h (2 Bft) 100,00 %
28.09.2023 15:40 21,3 C 21,1 C 16,7 C 78 % 1018,0 hPa 0,0 l/m 0 min 0 min 192 W/m 12,9 km/h (3 Bft) 100,00 %
28.09.2023 15:42 21,3 C 21,1 C 16,7 C 78 % 1018,0 hPa 0,0 l/m 2 min 0 min 275 W/m 12,9 km/h (3 Bft) 100,00 %
28.09.2023 15:44 21,2 C 21,1 C 16,7 C 78 % 1017,9 hPa 0,0 l/m 2 min 0 min 302 W/m 6,4 km/h (2 Bft) 100,00 %
28.09.2023 15:46 21,2 C 21,1 C 16,7 C 77 % 1017,9 hPa 0,0 l/m 2 min 0 min 256 W/m 9,7 km/h (2 Bft) 100,00 %
28.09.2023 15:48 21,2 C 21,1 C 16,7 C 78 % 1017,8 hPa 0,0 l/m 0 min 0 min 188 W/m 12,9 km/h (3 Bft) 100,00 %
28.09.2023 15:50 21,2 C 21,1 C 17,2 C 78 % 1017,8 hPa 0,0 l/m 0 min 0 min 202 W/m 6,4 km/h (2 Bft) 100,00 %
28.09.2023 15:52 21,2 C 21,7 C 17,2 C 78 % 1017,8 hPa 0,0 l/m 2 min 0 min 343 W/m 6,4 km/h (2 Bft) 95,74 %
28.09.2023 15:54 21,3 C 21,7 C 17,2 C 78 % 1017,8 hPa 0,0 l/m 2 min 0 min 405 W/m 6,4 km/h (2 Bft) 100,00 %
28.09.2023 15:56 21,3 C 21,7 C 17,2 C 78 % 1017,8 hPa 0,0 l/m 2 min 0 min 414 W/m 9,7 km/h (2 Bft) 97,87 %
28.09.2023 15:58 21,4 C 21,7 C 17,2 C 78 % 1017,8 hPa 0,0 l/m 2 min 0 min 236 W/m 9,7 km/h (2 Bft) 95,74 %
28.09.2023 16:00 21,4 C 21,7 C 17,2 C 78 % 1017,8 hPa 0,0 l/m 2 min 0 min 262 W/m 6,4 km/h (2 Bft) 97,87 %
28.09.2023 16:02 21,5 C 21,7 C 17,2 C 78 % 1017,8 hPa 0,0 l/m 2 min 0 min 314 W/m 6,4 km/h (2 Bft) 97,87 %
28.09.2023 16:04 21,6 C 22,2 C 17,2 C 78 % 1017,8 hPa 0,0 l/m 2 min 0 min 339 W/m 6,4 km/h (2 Bft) 96,00 %
28.09.2023 16:10 21,7 C 22,2 C 17,2 C 77 % 1017,7 hPa 0,0 l/m 5 min 0 min 293 W/m 6,4 km/h (2 Bft) 97,18 %
28.09.2023 16:12 21,7 C 22,2 C 17,2 C 78 % 1017,6 hPa 0,0 l/m 0 min 0 min 193 W/m 0,0 km/h (0 Bft) 97,87 %
28.09.2023 16:14 21,7 C 21,7 C 17,2 C 77 % 1017,6 hPa 0,0 l/m 0 min 0 min 193 W/m 0,0 km/h (0 Bft) 97,87 %
28.09.2023 16:16 21,7 C 21,7 C 17,2 C 77 % 1017,5 hPa 0,0 l/m 0 min 0 min 179 W/m 6,4 km/h (2 Bft) 95,74 %
28.09.2023 16:18 21,7 C 21,7 C 17,2 C 77 % 1017,5 hPa 0,0 l/m 0 min 0 min 169 W/m 9,7 km/h (2 Bft) 97,87 %
28.09.2023 16:20 21,7 C 21,7 C 17,2 C 77 % 1017,5 hPa 0,0 l/m 0 min 0 min 168 W/m 6,4 km/h (2 Bft) 97,87 %
28.09.2023 16:22 21,8 C 21,7 C 17,2 C 77 % 1017,5 hPa 0,0 l/m 0 min 0 min 155 W/m 3,2 km/h (1 Bft) 95,74 %
28.09.2023 16:24 21,8 C 21,7 C 17,2 C 77 % 1017,5 hPa 0,0 l/m 0 min 0 min 161 W/m 6,4 km/h (2 Bft) 97,87 %
28.09.2023 16:26 21,8 C 21,7 C 17,2 C 77 % 1017,4 hPa 0,0 l/m 0 min 0 min 187 W/m 3,2 km/h (1 Bft) 93,48 %
28.09.2023 16:28 21,8 C 21,7 C 17,2 C 77 % 1017,4 hPa 0,0 l/m 2 min 0 min 268 W/m 3,2 km/h (1 Bft) 95,74 %
28.09.2023 16:30 21,8 C 21,7 C 17,2 C 78 % 1017,4 hPa 0,0 l/m 2 min 0 min 272 W/m 0,0 km/h (0 Bft) 97,87 %
28.09.2023 16:32 21,8 C 21,7 C 17,2 C 78 % 1017,3 hPa 0,0 l/m 2 min 0 min 212 W/m 6,4 km/h (2 Bft) 95,74 %
28.09.2023 16:34 21,8 C 21,7 C 17,2 C 77 % 1017,4 hPa 0,0 l/m 2 min 0 min 219 W/m 6,4 km/h (2 Bft) 97,87 %
28.09.2023 16:36 21,8 C 21,7 C 17,2 C 77 % 1017,3 hPa 0,0 l/m 2 min 0 min 194 W/m 3,2 km/h (1 Bft) 100,00 %
28.09.2023 16:38 21,8 C 21,7 C 16,7 C 77 % 1017,3 hPa 0,0 l/m 0 min 0 min 174 W/m 3,2 km/h (1 Bft) 95,74 %
28.09.2023 16:40 21,8 C 21,7 C 16,7 C 77 % 1017,3 hPa 0,0 l/m 0 min 0 min 174 W/m 3,2 km/h (1 Bft) 97,87 %
28.09.2023 16:42 21,7 C 21,7 C 16,7 C 77 % 1017,4 hPa 0,0 l/m 0 min 0 min 180 W/m 6,4 km/h (2 Bft) 100,00 %
28.09.2023 16:44 21,7 C 21,7 C 16,7 C 77 % 1017,4 hPa 0,0 l/m 0 min 0 min 172 W/m 3,2 km/h (1 Bft) 100,00 %
28.09.2023 16:46 21,7 C 21,7 C 16,7 C 77 % 1017,4 hPa 0,0 l/m 0 min 0 min 149 W/m 3,2 km/h (1 Bft) 95,74 %
28.09.2023 16:48 21,7 C 21,1 C 16,7 C 77 % 1017,5 hPa 0,0 l/m 0 min 0 min 132 W/m 3,2 km/h (1 Bft) 97,83 %
28.09.2023 16:50 21,7 C 21,1 C 16,7 C 78 % 1017,4 hPa 0,0 l/m 0 min 0 min 128 W/m 6,4 km/h (2 Bft) 100,00 %
28.09.2023 16:52 21,7 C 21,1 C 16,7 C 78 % 1017,5 hPa 0,0 l/m 0 min 0 min 126 W/m 3,2 km/h (1 Bft) 93,62 %
28.09.2023 16:54 21,7 C 21,1 C 16,7 C 78 % 1017,5 hPa 0,0 l/m 0 min 0 min 111 W/m 6,4 km/h (2 Bft) 100,00 %
28.09.2023 16:56 21,7 C 21,1 C 16,7 C 78 % 1017,5 hPa 0,0 l/m 0 min 0 min 101 W/m 6,4 km/h (2 Bft) 100,00 %
28.09.2023 16:58 21,7 C 21,1 C 16,7 C 78 % 1017,5 hPa 0,0 l/m 0 min 0 min 101 W/m 3,2 km/h (1 Bft) 97,87 %
28.09.2023 17:00 21,7 C 21,1 C 16,7 C 78 % 1017,5 hPa 0,0 l/m 0 min 0 min 97 W/m 3,2 km/h (1 Bft) 97,87 %
28.09.2023 17:02 21,7 C 21,1 C 16,7 C 78 % 1017,5 hPa 0,0 l/m 0 min 0 min 95 W/m 3,2 km/h (1 Bft) 93,62 %
28.09.2023 17:04 21,6 C 21,1 C 16,7 C 78 % 1017,5 hPa 0,0 l/m 0 min 0 min 103 W/m 3,2 km/h (1 Bft) 100,00 %
28.09.2023 17:10 21,7 C 21,1 C 16,7 C 79 % 1017,5 hPa 0,0 l/m 0 min 0 min 101 W/m 3,2 km/h (1 Bft) 96,64 %
28.09.2023 17:12 21,6 C 21,1 C 16,7 C 78 % 1017,5 hPa 0,0 l/m 0 min 0 min 98 W/m 3,2 km/h (1 Bft) 93,62 %
28.09.2023 17:14 21,6 C 21,1 C 16,7 C 78 % 1017,5 hPa 0,0 l/m 0 min 0 min 93 W/m 3,2 km/h (1 Bft) 93,62 %
28.09.2023 17:16 21,6 C 21,1 C 16,7 C 79 % 1017,5 hPa 0,0 l/m 0 min 0 min 93 W/m 3,2 km/h (1 Bft) 95,74 %
28.09.2023 17:18 21,6 C 21,1 C 16,7 C 78 % 1017,5 hPa 0,0 l/m 0 min 0 min 107 W/m 3,2 km/h (1 Bft) 95,74 %
28.09.2023 17:20 21,6 C 21,1 C 16,7 C 78 % 1017,5 hPa 0,0 l/m 0 min 0 min 132 W/m 3,2 km/h (1 Bft) 95,74 %
28.09.2023 17:22 21,6 C 21,1 C 16,7 C 79 % 1017,5 hPa 0,0 l/m 0 min 0 min 143 W/m 6,4 km/h (2 Bft) 91,49 %
28.09.2023 17:24 21,6 C 21,1 C 16,7 C 79 % 1017,5 hPa 0,0 l/m 0 min 0 min 137 W/m 3,2 km/h (1 Bft) 95,74 %
28.09.2023 17:26 21,6 C 21,1 C 16,7 C 78 % 1017,5 hPa 0,0 l/m 0 min 0 min 118 W/m 6,4 km/h (2 Bft) 93,62 %
28.09.2023 17:28 21,6 C 21,1 C 16,7 C 78 % 1017,5 hPa 0,0 l/m 0 min 0 min 91 W/m 6,4 km/h (2 Bft) 95,74 %
28.09.2023 17:30 21,6 C 21,1 C 16,7 C 79 % 1017,5 hPa 0,0 l/m 0 min 0 min 80 W/m 3,2 km/h (1 Bft) 95,74 %
28.09.2023 17:32 21,6 C 21,1 C 16,7 C 79 % 1017,4 hPa 0,0 l/m 0 min 0 min 76 W/m 3,2 km/h (1 Bft) 95,65 %
28.09.2023 17:34 21,6 C 21,1 C 16,7 C 79 % 1017,4 hPa 0,0 l/m 0 min 0 min 76 W/m 3,2 km/h (1 Bft) 97,87 %
28.09.2023 17:36 21,6 C 21,1 C 16,7 C 79 % 1017,4 hPa 0,0 l/m 0 min 0 min 84 W/m 3,2 km/h (1 Bft) 95,92 %
28.09.2023 17:38 21,6 C 21,1 C 16,7 C 79 % 1017,4 hPa 0,0 l/m 0 min 0 min 87 W/m 3,2 km/h (1 Bft) 93,62 %
28.09.2023 17:40 21,6 C 21,1 C 16,7 C 79 % 1017,3 hPa 0,0 l/m 0 min 0 min 85 W/m 3,2 km/h (1 Bft) 95,74 %
28.09.2023 17:42 21,5 C 20,6 C 16,7 C 79 % 1017,4 hPa 0,0 l/m 0 min 0 min 84 W/m 6,4 km/h (2 Bft) 95,74 %
28.09.2023 17:44 21,5 C 20,6 C 16,7 C 79 % 1017,3 hPa 0,0 l/m 0 min 0 min 80 W/m 3,2 km/h (1 Bft) 97,87 %
28.09.2023 17:46 21,4 C 20,6 C 16,7 C 79 % 1017,4 hPa 0,0 l/m 0 min 0 min 77 W/m 9,7 km/h (2 Bft) 97,92 %
28.09.2023 17:48 21,4 C 20,6 C 16,7 C 78 % 1017,4 hPa 0,0 l/m 0 min 0 min 79 W/m 3,2 km/h (1 Bft) 97,87 %
28.09.2023 17:50 21,4 C 20,6 C 16,7 C 78 % 1017,3 hPa 0,0 l/m 0 min 0 min 87 W/m 3,2 km/h (1 Bft) 93,62 %
28.09.2023 17:52 21,4 C 20,6 C 16,7 C 79 % 1017,3 hPa 0,0 l/m 0 min 0 min 87 W/m 6,4 km/h (2 Bft) 97,83 %
28.09.2023 17:54 21,4 C 20,6 C 16,7 C 79 % 1017,3 hPa 0,0 l/m 0 min 0 min 86 W/m 3,2 km/h (1 Bft) 93,62 %
28.09.2023 17:56 21,4 C 20,6 C 16,7 C 79 % 1017,3 hPa 0,0 l/m 0 min 0 min 86 W/m 3,2 km/h (1 Bft) 97,22 %
28.09.2023 17:58 21,4 C 20,6 C 16,7 C 79 % 1017,2 hPa 0,0 l/m 0 min 0 min 86 W/m 0,0 km/h (0 Bft) 98,11 %
28.09.2023 18:00 21,4 C 20,6 C 16,7 C 79 % 1017,2 hPa 0,0 l/m 0 min 0 min 85 W/m 0,0 km/h (0 Bft) 97,87 %
28.09.2023 18:02 21,4 C 20,6 C 16,1 C 79 % 1017,1 hPa 0,0 l/m 0 min 0 min 83 W/m 0,0 km/h (0 Bft) 95,74 %
28.09.2023 18:04 21,4 C 20,6 C 16,1 C 79 % 1017,1 hPa 0,0 l/m 0 min 0 min 79 W/m 0,0 km/h (0 Bft) 93,48 %
28.09.2023 18:08 21,3 C 20,6 C 16,1 C 80 % 1017,2 hPa 0,0 l/m 0 min 0 min 70 W/m 3,2 km/h (1 Bft) 97,83 %
28.09.2023 18:10 21,3 C 20,6 C 16,1 C 79 % 1017,2 hPa 0,0 l/m 0 min 0 min 62 W/m 3,2 km/h (1 Bft) 95,74 %
28.09.2023 18:12 21,3 C 20,6 C 16,1 C 80 % 1017,2 hPa 0,0 l/m 0 min 0 min 57 W/m 0,0 km/h (0 Bft) 97,87 %
28.09.2023 18:16 21,3 C 20,6 C 16,1 C 79 % 1017,2 hPa 0,0 l/m 0 min 0 min 49 W/m 3,2 km/h (1 Bft) 97,85 %
28.09.2023 18:18 21,3 C 20,6 C 16,1 C 79 % 1017,2 hPa 0,0 l/m 0 min 0 min 44 W/m 0,0 km/h (0 Bft) 97,87 %
28.09.2023 18:20 21,2 C 20,0 C 16,1 C 79 % 1017,2 hPa 0,0 l/m 0 min 0 min 39 W/m 0,0 km/h (0 Bft) 97,87 %
28.09.2023 18:22 21,2 C 20,0 C 16,1 C 80 % 1017,1 hPa 0,0 l/m 0 min 0 min 39 W/m 3,2 km/h (1 Bft) 97,87 %
28.09.2023 18:24 21,2 C 20,0 C 16,1 C 80 % 1017,2 hPa 0,0 l/m 0 min 0 min 35 W/m 0,0 km/h (0 Bft) 97,87 %
28.09.2023 18:26 21,2 C 20,0 C 16,1 C 81 % 1017,2 hPa 0,0 l/m 0 min 0 min 31 W/m 0,0 km/h (0 Bft) 97,87 %
28.09.2023 18:28 21,2 C 20,0 C 16,1 C 81 % 1017,1 hPa 0,0 l/m 0 min 0 min 33 W/m 0,0 km/h (0 Bft) 95,74 %
28.09.2023 18:30 21,2 C 20,0 C 16,1 C 81 % 1017,1 hPa 0,0 l/m 0 min 0 min 32 W/m 0,0 km/h (0 Bft) 97,87 %
28.09.2023 18:32 21,2 C 20,0 C 16,1 C 81 % 1017,1 hPa 0,0 l/m 0 min 0 min 33 W/m 0,0 km/h (0 Bft) 97,87 %
28.09.2023 18:34 21,2 C 20,0 C 15,6 C 81 % 1017,1 hPa 0,0 l/m 0 min 0 min 31 W/m 0,0 km/h (0 Bft) 95,65 %
28.09.2023 18:36 21,1 C 20,0 C 15,6 C 82 % 1017,2 hPa 0,0 l/m 0 min 0 min 28 W/m 0,0 km/h (0 Bft) 100,00 %
28.09.2023 18:38 21,1 C 20,0 C 15,6 C 82 % 1017,2 hPa 0,0 l/m 0 min 0 min 28 W/m 0,0 km/h (0 Bft) 100,00 %
28.09.2023 18:40 21,1 C 20,0 C 15,6 C 82 % 1017,2 hPa 0,0 l/m 0 min 0 min 28 W/m 0,0 km/h (0 Bft) 100,00 %
28.09.2023 18:42 21,1 C 19,4 C 15,6 C 82 % 1017,1 hPa 0,0 l/m 0 min 0 min 26 W/m 0,0 km/h (0 Bft) 100,00 %
28.09.2023 18:44 21,1 C 19,4 C 15,6 C 83 % 1017,1 hPa 0,0 l/m 0 min 0 min 23 W/m 0,0 km/h (0 Bft) 100,00 %
28.09.2023 18:46 21,0 C 19,4 C 15,6 C 83 % 1017,1 hPa 0,0 l/m 0 min 0 min 19 W/m 0,0 km/h (0 Bft) 100,00 %
28.09.2023 18:48 21,0 C 19,4 C 15,6 C 83 % 1017,1 hPa 0,0 l/m 0 min 0 min 15 W/m 0,0 km/h (0 Bft) 100,00 %
28.09.2023 18:50 20,9 C 19,4 C 15,0 C 83 % 1017,1 hPa 0,0 l/m 0 min 0 min 13 W/m 0,0 km/h (0 Bft) 97,87 %
28.09.2023 18:52 20,9 C 19,4 C 15,0 C 83 % 1017,1 hPa 0,0 l/m 0 min 0 min 10 W/m 0,0 km/h (0 Bft) 97,87 %
28.09.2023 18:54 20,8 C 19,4 C 15,0 C 84 % 1017,1 hPa 0,0 l/m 0 min 0 min 9 W/m 0,0 km/h (0 Bft) 100,00 %
28.09.2023 18:56 20,8 C 19,4 C 15,0 C 84 % 1017,1 hPa 0,0 l/m 0 min 0 min 9 W/m 0,0 km/h (0 Bft) 100,00 %
28.09.2023 18:58 20,8 C 19,4 C 15,0 C 84 % 1017,1 hPa 0,0 l/m 0 min 0 min 11 W/m 0,0 km/h (0 Bft) 100,00 %
28.09.2023 19:00 20,8 C 19,4 C 15,0 C 84 % 1017,1 hPa 0,0 l/m 0 min 0 min 11 W/m 0,0 km/h (0 Bft) 100,00 %
28.09.2023 19:02 20,7 C 18,9 C 15,0 C 84 % 1017,1 hPa 0,0 l/m 0 min 0 min 9 W/m 0,0 km/h (0 Bft) 100,00 %
28.09.2023 19:04 20,7 C 18,9 C 15,0 C 84 % 1017,1 hPa 0,0 l/m 0 min 0 min 7 W/m 0,0 km/h (0 Bft) 100,00 %
28.09.2023 19:10 20,6 C 18,9 C 15,0 C 85 % 1017,1 hPa 0,0 l/m 0 min 0 min 5 W/m 0,0 km/h (0 Bft) 100,00 %
28.09.2023 19:12 20,6 C 18,9 C 15,0 C 85 % 1017,1 hPa 0,0 l/m 0 min 0 min 5 W/m 0,0 km/h (0 Bft) 100,00 %
28.09.2023 19:14 20,6 C 18,9 C 15,0 C 85 % 1017,0 hPa 0,0 l/m 0 min 0 min 3 W/m 0,0 km/h (0 Bft) 100,00 %
28.09.2023 19:16 20,5 C 18,9 C 15,0 C 85 % 1017,0 hPa 0,0 l/m 0 min 0 min 0 W/m 0,0 km/h (0 Bft) 97,83 %
28.09.2023 19:18 20,4 C 18,9 C 15,0 C 86 % 1017,0 hPa 0,0 l/m 0 min 0 min 0 W/m 0,0 km/h (0 Bft) 100,00 %
28.09.2023 19:20 20,4 C 18,9 C 15,0 C 86 % 1016,9 hPa 0,0 l/m 0 min 0 min 0 W/m 0,0 km/h (0 Bft) 100,00 %
28.09.2023 19:22 20,3 C 18,3 C 14,4 C 86 % 1017,0 hPa 0,0 l/m 0 min 0 min 0 W/m 0,0 km/h (0 Bft) 100,00 %
28.09.2023 19:24 20,3 C 18,3 C 14,4 C 86 % 1016,9 hPa 0,0 l/m 0 min 0 min 0 W/m 0,0 km/h (0 Bft) 100,00 %
28.09.2023 19:26 20,2 C 18,3 C 14,4 C 86 % 1016,9 hPa 0,0 l/m 0 min 0 min 0 W/m 0,0 km/h (0 Bft) 100,00 %
28.09.2023 19:28 20,1 C 18,3 C 14,4 C 86 % 1016,9 hPa 0,0 l/m 0 min 0 min 0 W/m 0,0 km/h (0 Bft) 100,00 %
28.09.2023 19:30 20,1 C 18,3 C 14,4 C 86 % 1016,9 hPa 0,0 l/m 0 min 0 min 0 W/m 0,0 km/h (0 Bft) 97,87 %
28.09.2023 19:32 20,0 C 18,3 C 14,4 C 86 % 1016,9 hPa 0,0 l/m 0 min 0 min 0 W/m 0,0 km/h (0 Bft) 100,00 %
28.09.2023 19:34 19,9 C 17,8 C 14,4 C 86 % 1017,0 hPa 0,0 l/m 0 min 0 min 0 W/m 0,0 km/h (0 Bft) 97,87 %
28.09.2023 19:36 19,9 C 17,8 C 14,4 C 86 % 1016,9 hPa 0,0 l/m 0 min 0 min 0 W/m 0,0 km/h (0 Bft) 97,83 %
28.09.2023 19:38 19,8 C 17,8 C 13,9 C 86 % 1016,9 hPa 0,0 l/m 0 min 0 min 0 W/m 0,0 km/h (0 Bft) 97,87 %
28.09.2023 19:40 19,8 C 17,8 C 13,9 C 86 % 1017,0 hPa 0,0 l/m 0 min 0 min 0 W/m 0,0 km/h (0 Bft) 97,87 %
28.09.2023 19:42 19,7 C 17,8 C 13,9 C 86 % 1016,9 hPa 0,0 l/m 0 min 0 min 0 W/m 0,0 km/h (0 Bft) 95,74 %
28.09.2023 19:44 19,7 C 17,8 C 13,9 C 86 % 1016,9 hPa 0,0 l/m 0 min 0 min 0 W/m 0,0 km/h (0 Bft) 95,74 %
28.09.2023 19:46 19,6 C 17,8 C 13,9 C 87 % 1016,9 hPa 0,0 l/m 0 min 0 min 0 W/m 0,0 km/h (0 Bft) 95,74 %
28.09.2023 19:48 19,6 C 17,8 C 13,9 C 87 % 1016,9 hPa 0,0 l/m 0 min 0 min 0 W/m 0,0 km/h (0 Bft) 97,87 %
28.09.2023 19:50 19,5 C 17,2 C 13,9 C 87 % 1016,9 hPa 0,0 l/m 0 min 0 min 0 W/m 0,0 km/h (0 Bft) 93,62 %
28.09.2023 19:52 19,4 C 17,2 C 13,9 C 87 % 1017,0 hPa 0,0 l/m 0 min 0 min 0 W/m 0,0 km/h (0 Bft) 97,87 %
28.09.2023 19:54 19,4 C 17,2 C 13,9 C 87 % 1017,0 hPa 0,0 l/m 0 min 0 min 0 W/m 0,0 km/h (0 Bft) 97,87 %
28.09.2023 19:56 19,3 C 17,2 C 13,9 C 87 % 1017,0 hPa 0,0 l/m 0 min 0 min 0 W/m 0,0 km/h (0 Bft) 93,62 %
28.09.2023 19:58 19,3 C 17,2 C 13,9 C 87 % 1017,0 hPa 0,0 l/m 0 min 0 min 0 W/m 0,0 km/h (0 Bft) 95,74 %
28.09.2023 20:00 19,3 C 17,2 C 13,9 C 88 % 1016,9 hPa 0,0 l/m 0 min 0 min 0 W/m 0,0 km/h (0 Bft) 95,65 %
28.09.2023 20:02 19,2 C 17,2 C 13,9 C 88 % 1017,0 hPa 0,0 l/m 0 min 0 min 0 W/m 0,0 km/h (0 Bft) 95,74 %
28.09.2023 20:04 19,2 C 17,2 C 13,9 C 88 % 1016,9 hPa 0,0 l/m 0 min 0 min 0 W/m 0,0 km/h (0 Bft) 94,00 %
28.09.2023 20:08 19,2 C 17,8 C 13,9 C 88 % 1016,9 hPa 0,0 l/m 0 min 0 min 0 W/m 0,0 km/h (0 Bft) 93,88 %
28.09.2023 20:09 19,2 C 17,8 C 13,9 C 88 % 1016,9 hPa 0,0 l/m 0 min 0 min 0 W/m 0,0 km/h (0 Bft) 91,30 %
28.09.2023 20:12 19,1 C 17,8 C 13,9 C 88 % 1016,9 hPa 0,0 l/m 0 min 0 min 0 W/m 3,2 km/h (1 Bft) 93,22 %
28.09.2023 20:14 19,1 C 17,8 C 13,9 C 88 % 1016,9 hPa 0,0 l/m 0 min 0 min 0 W/m 0,0 km/h (0 Bft) 93,62 %
28.09.2023 20:16 19,1 C 17,8 C 13,9 C 88 % 1017,0 hPa 0,0 l/m 0 min 0 min 0 W/m 0,0 km/h (0 Bft) 91,49 %
28.09.2023 20:18 19,1 C 17,8 C 13,9 C 88 % 1016,9 hPa 0,0 l/m 0 min 0 min 0 W/m 0,0 km/h (0 Bft) 93,62 %
28.09.2023 20:20 19,0 C 17,8 C 13,9 C 88 % 1016,9 hPa 0,0 l/m 0 min 0 min 0 W/m 0,0 km/h (0 Bft) 93,62 %
28.09.2023 20:22 19,0 C 17,8 C 13,9 C 88 % 1017,0 hPa 0,0 l/m 0 min 0 min 0 W/m 0,0 km/h (0 Bft) 93,48 %
28.09.2023 20:24 18,9 C 17,8 C 13,9 C 88 % 1017,0 hPa 0,0 l/m 0 min 0 min 0 W/m 0,0 km/h (0 Bft) 95,74 %
28.09.2023 20:26 18,9 C 17,8 C 13,9 C 88 % 1017,1 hPa 0,0 l/m 0 min 0 min 0 W/m 0,0 km/h (0 Bft) 95,74 %
28.09.2023 20:28 18,9 C 17,8 C 13,9 C 88 % 1017,1 hPa 0,0 l/m 0 min 0 min 0 W/m 0,0 km/h (0 Bft) 93,62 %
28.09.2023 20:30 18,9 C 17,8 C 13,9 C 88 % 1017,0 hPa 0,0 l/m 0 min 0 min 0 W/m 0,0 km/h (0 Bft) 97,87 %
28.09.2023 20:32 18,9 C 17,8 C 13,9 C 88 % 1017,1 hPa 0,0 l/m 0 min 0 min 0 W/m 0,0 km/h (0 Bft) 93,62 %
28.09.2023 20:34 18,8 C 17,2 C 13,9 C 89 % 1017,2 hPa 0,0 l/m 0 min 0 min 0 W/m 0,0 km/h (0 Bft) 95,74 %
28.09.2023 20:36 18,8 C 17,8 C 13,9 C 89 % 1017,2 hPa 0,0 l/m 0 min 0 min 0 W/m 0,0 km/h (0 Bft) 97,87 %
28.09.2023 20:38 18,8 C 17,8 C 13,9 C 89 % 1017,2 hPa 0,0 l/m 0 min 0 min 0 W/m 0,0 km/h (0 Bft) 97,87 %
28.09.2023 20:40 18,8 C 17,2 C 13,9 C 89 % 1017,2 hPa 0,0 l/m 0 min 0 min 0 W/m 0,0 km/h (0 Bft) 95,74 %
28.09.2023 20:42 18,8 C 17,2 C 13,9 C 89 % 1017,3 hPa 0,0 l/m 0 min 0 min 0 W/m 0,0 km/h (0 Bft) 97,83 %
28.09.2023 20:44 18,8 C 17,2 C 13,9 C 89 % 1017,3 hPa 0,0 l/m 0 min 0 min 0 W/m 0,0 km/h (0 Bft) 100,00 %
28.09.2023 20:46 18,8 C 17,8 C 13,3 C 89 % 1017,3 hPa 0,0 l/m 0 min 0 min 0 W/m 0,0 km/h (0 Bft) 97,87 %
28.09.2023 20:48 18,7 C 17,2 C 13,3 C 89 % 1017,2 hPa 0,0 l/m 0 min 0 min 0 W/m 0,0 km/h (0 Bft) 97,87 %
28.09.2023 20:50 18,7 C 17,2 C 13,3 C 89 % 1017,3 hPa 0,0 l/m 0 min 0 min 0 W/m 0,0 km/h (0 Bft) 95,74 %
28.09.2023 20:52 18,7 C 17,2 C 13,3 C 89 % 1017,4 hPa 0,0 l/m 0 min 0 min 0 W/m 0,0 km/h (0 Bft) 97,87 %
28.09.2023 20:54 18,7 C 17,2 C 13,3 C 89 % 1017,4 hPa 0,0 l/m 0 min 0 min 0 W/m 0,0 km/h (0 Bft) 97,87 %
28.09.2023 20:56 18,7 C 17,2 C 13,3 C 89 % 1017,3 hPa 0,0 l/m 0 min 0 min 0 W/m 0,0 km/h (0 Bft) 93,62 %
28.09.2023 20:58 18,7 C 17,2 C 13,3 C 89 % 1017,3 hPa 0,0 l/m 0 min 0 min 0 W/m 0,0 km/h (0 Bft) 100,00 %
28.09.2023 21:00 18,7 C 17,2 C 13,3 C 89 % 1017,2 hPa 0,0 l/m 0 min 0 min 0 W/m 0,0 km/h (0 Bft) 100,00 %
28.09.2023 21:02 18,6 C 17,2 C 13,3 C 89 % 1017,3 hPa 0,0 l/m 0 min 0 min 0 W/m 0,0 km/h (0 Bft) 100,00 %
28.09.2023 21:04 18,6 C 17,2 C 13,3 C 89 % 1017,3 hPa 0,0 l/m 0 min 0 min 0 W/m 3,2 km/h (1 Bft) 97,83 %
28.09.2023 21:08 18,6 C 17,2 C 13,9 C 89 % 1017,3 hPa 0,0 l/m 0 min 0 min 0 W/m 3,2 km/h (1 Bft) 100,00 %
28.09.2023 21:09 18,6 C 17,2 C 13,9 C 89 % 1017,3 hPa 0,0 l/m 0 min 0 min 0 W/m 0,0 km/h (0 Bft) 100,00 %
28.09.2023 21:12 18,6 C 17,2 C 13,9 C 90 % 1017,3 hPa 0,0 l/m 0 min 0 min 0 W/m 3,2 km/h (1 Bft) 100,00 %
28.09.2023 21:14 18,6 C 17,2 C 13,9 C 90 % 1017,3 hPa 0,0 l/m 0 min 0 min 0 W/m 3,2 km/h (1 Bft) 95,65 %
28.09.2023 21:16 18,6 C 17,2 C 13,9 C 90 % 1017,3 hPa 0,0 l/m 0 min 0 min 0 W/m 3,2 km/h (1 Bft) 100,00 %
28.09.2023 21:18 18,6 C 17,2 C 13,9 C 90 % 1017,3 hPa 0,0 l/m 0 min 0 min 0 W/m 0,0 km/h (0 Bft) 100,00 %
28.09.2023 21:20 18,6 C 17,2 C 13,9 C 90 % 1017,3 hPa 0,0 l/m 0 min 0 min 0 W/m 3,2 km/h (1 Bft) 100,00 %
28.09.2023 21:22 18,5 C 17,2 C 13,9 C 90 % 1017,2 hPa 0,0 l/m 0 min 0 min 0 W/m 0,0 km/h (0 Bft) 97,87 %
28.09.2023 21:24 18,5 C 17,2 C 13,9 C 90 % 1017,2 hPa 0,0 l/m 0 min 0 min 0 W/m 0,0 km/h (0 Bft) 100,00 %
28.09.2023 21:26 18,5 C 17,2 C 13,9 C 90 % 1017,2 hPa 0,0 l/m 0 min 0 min 0 W/m 0,0 km/h (0 Bft) 100,00 %
28.09.2023 21:28 18,5 C 17,2 C 13,9 C 90 % 1017,2 hPa 0,0 l/m 0 min 0 min 0 W/m 3,2 km/h (1 Bft) 97,87 %
28.09.2023 21:30 18,4 C 17,2 C 13,9 C 90 % 1017,2 hPa 0,0 l/m 0 min 0 min 0 W/m 0,0 km/h (0 Bft) 100,00 %
28.09.2023 21:32 18,4 C 17,2 C 13,9 C 90 % 1017,2 hPa 0,0 l/m 0 min 0 min 0 W/m 0,0 km/h (0 Bft) 100,00 %
28.09.2023 21:34 18,4 C 17,2 C 13,9 C 91 % 1017,2 hPa 0,0 l/m 0 min 0 min 0 W/m 0,0 km/h (0 Bft) 100,00 %
28.09.2023 21:36 18,4 C 17,2 C 13,9 C 91 % 1017,2 hPa 0,0 l/m 0 min 0 min 0 W/m 3,2 km/h (1 Bft) 97,87 %
28.09.2023 21:38 18,4 C 17,2 C 13,9 C 90 % 1017,3 hPa 0,0 l/m 0 min 0 min 0 W/m 3,2 km/h (1 Bft) 100,00 %
28.09.2023 21:40 18,4 C 17,2 C 13,9 C 90 % 1017,2 hPa 0,0 l/m 0 min 0 min 0 W/m 3,2 km/h (1 Bft) 97,87 %
28.09.2023 21:42 18,4 C 17,2 C 13,9 C 91 % 1017,2 hPa 0,0 l/m 0 min 0 min 0 W/m 3,2 km/h (1 Bft) 95,74 %
28.09.2023 21:44 18,4 C 17,2 C 13,9 C 91 % 1017,2 hPa 0,0 l/m 0 min 0 min 0 W/m 3,2 km/h (1 Bft) 100,00 %
28.09.2023 21:46 18,3 C 17,2 C 13,9 C 91 % 1017,2 hPa 0,0 l/m 0 min 0 min 0 W/m 3,2 km/h (1 Bft) 100,00 %
28.09.2023 21:48 18,3 C 17,2 C 13,9 C 91 % 1017,2 hPa 0,0 l/m 0 min 0 min 0 W/m 0,0 km/h (0 Bft) 97,83 %
28.09.2023 21:50 18,3 C 17,2 C 13,9 C 91 % 1017,2 hPa 0,0 l/m 0 min 0 min 0 W/m 3,2 km/h (1 Bft) 97,87 %
28.09.2023 21:52 18,3 C 17,2 C 13,9 C 91 % 1017,2 hPa 0,0 l/m 0 min 0 min 0 W/m 3,2 km/h (1 Bft) 97,87 %
28.09.2023 21:54 18,3 C 17,2 C 13,9 C 91 % 1017,2 hPa 0,0 l/m 0 min 0 min 0 W/m 3,2 km/h (1 Bft) 95,83 %
28.09.2023 21:56 18,3 C 17,2 C 13,9 C 91 % 1017,2 hPa 0,0 l/m 0 min 0 min 0 W/m 0,0 km/h (0 Bft) 97,87 %
28.09.2023 21:58 18,3 C 17,2 C 13,9 C 91 % 1017,3 hPa 0,0 l/m 0 min 0 min 0 W/m 0,0 km/h (0 Bft) 95,83 %
28.09.2023 22:00 18,3 C 17,2 C 13,9 C 91 % 1017,3 hPa 0,0 l/m 0 min 0 min 0 W/m 0,0 km/h (0 Bft) 95,74 %
28.09.2023 22:02 18,3 C 17,2 C 13,9 C 91 % 1017,3 hPa 0,0 l/m 0 min 0 min 0 W/m 0,0 km/h (0 Bft) 97,87 %
28.09.2023 22:04 18,3 C 17,2 C 13,9 C 91 % 1017,2 hPa 0,0 l/m 0 min 0 min 0 W/m 0,0 km/h (0 Bft) 97,87 %
28.09.2023 22:06 18,2 C 17,2 C 13,9 C 91 % 1017,2 hPa 0,0 l/m 0 min 0 min 0 W/m 0,0 km/h (0 Bft) 97,83 %
28.09.2023 22:08 18,2 C 17,2 C 13,3 C 91 % 1017,2 hPa 0,0 l/m 0 min 0 min 0 W/m 0,0 km/h (0 Bft) 97,87 %
28.09.2023 22:10 18,2 C 17,2 C 13,3 C 91 % 1017,2 hPa 0,0 l/m 0 min 0 min 0 W/m 0,0 km/h (0 Bft) 93,62 %
28.09.2023 22:12 18,2 C 16,7 C 13,3 C 91 % 1017,1 hPa 0,0 l/m 0 min 0 min 0 W/m 0,0 km/h (0 Bft) 97,87 %
28.09.2023 22:14 18,2 C 16,7 C 13,3 C 91 % 1017,2 hPa 0,0 l/m 0 min 0 min 0 W/m 0,0 km/h (0 Bft) 97,87 %
28.09.2023 22:16 18,2 C 16,7 C 13,3 C 91 % 1017,1 hPa 0,0 l/m 0 min 0 min 0 W/m 0,0 km/h (0 Bft) 97,87 %
28.09.2023 22:18 18,1 C 16,7 C 13,3 C 91 % 1017,0 hPa 0,0 l/m 0 min 0 min 0 W/m 0,0 km/h (0 Bft) 97,87 %
28.09.2023 22:20 18,1 C 16,7 C 13,3 C 91 % 1017,0 hPa 0,0 l/m 0 min 0 min 0 W/m 0,0 km/h (0 Bft) 100,00 %
28.09.2023 22:22 18,1 C 16,7 C 13,3 C 91 % 1017,0 hPa 0,0 l/m 0 min 0 min 0 W/m 0,0 km/h (0 Bft) 100,00 %
28.09.2023 22:24 18,1 C 16,7 C 13,3 C 91 % 1016,9 hPa 0,0 l/m 0 min 0 min 0 W/m 3,2 km/h (1 Bft) 100,00 %
28.09.2023 22:26 18,0 C 16,7 C 13,3 C 91 % 1016,9 hPa 0,0 l/m 0 min 0 min 0 W/m 3,2 km/h (1 Bft) 100,00 %
28.09.2023 22:28 18,0 C 16,7 C 13,3 C 91 % 1016,9 hPa 0,0 l/m 0 min 0 min 0 W/m 3,2 km/h (1 Bft) 100,00 %
28.09.2023 22:30 17,9 C 16,7 C 13,3 C 91 % 1016,9 hPa 0,0 l/m 0 min 0 min 0 W/m 3,2 km/h (1 Bft) 100,00 %
28.09.2023 22:32 17,9 C 16,7 C 13,3 C 91 % 1016,8 hPa 0,0 l/m 0 min 0 min 0 W/m 3,2 km/h (1 Bft) 100,00 %
28.09.2023 22:34 17,9 C 16,7 C 13,3 C 91 % 1016,8 hPa 0,0 l/m 0 min 0 min 0 W/m 3,2 km/h (1 Bft) 93,62 %
28.09.2023 22:36 17,9 C 16,7 C 13,3 C 91 % 1016,8 hPa 0,0 l/m 0 min 0 min 0 W/m 0,0 km/h (0 Bft) 97,87 %
28.09.2023 22:38 17,8 C 16,7 C 13,3 C 91 % 1016,8 hPa 0,0 l/m 0 min 0 min 0 W/m 0,0 km/h (0 Bft) 97,87 %
28.09.2023 22:40 17,8 C 16,7 C 13,3 C 91 % 1016,8 hPa 0,0 l/m 0 min 0 min 0 W/m 3,2 km/h (1 Bft) 97,87 %
28.09.2023 22:42 17,8 C 16,7 C 13,3 C 91 % 1016,8 hPa 0,0 l/m 0 min 0 min 0 W/m 0,0 km/h (0 Bft) 97,87 %
28.09.2023 22:44 17,8 C 16,7 C 13,3 C 91 % 1016,7 hPa 0,0 l/m 0 min 0 min 0 W/m 3,2 km/h (1 Bft) 95,74 %
28.09.2023 22:46 17,8 C 16,7 C 13,3 C 91 % 1016,7 hPa 0,0 l/m 0 min 0 min 0 W/m 3,2 km/h (1 Bft) 97,87 %
28.09.2023 22:48 17,7 C 16,7 C 13,3 C 91 % 1016,7 hPa 0,0 l/m 0 min 0 min 0 W/m 3,2 km/h (1 Bft) 93,48 %
28.09.2023 22:50 17,7 C 16,7 C 13,3 C 91 % 1016,8 hPa 0,0 l/m 0 min 0 min 0 W/m 3,2 km/h (1 Bft) 95,74 %
28.09.2023 22:52 17,7 C 16,7 C 13,3 C 91 % 1016,8 hPa 0,0 l/m 0 min 0 min 0 W/m 3,2 km/h (1 Bft) 93,62 %
28.09.2023 22:54 17,7 C 16,7 C 13,3 C 91 % 1016,8 hPa 0,0 l/m 0 min 0 min 0 W/m 12,9 km/h (3 Bft) 93,62 %
28.09.2023 22:56 17,7 C 16,7 C 13,3 C 91 % 1016,8 hPa 0,0 l/m 0 min 0 min 0 W/m 6,4 km/h (2 Bft) 95,74 %
28.09.2023 22:58 17,7 C 16,7 C 13,3 C 91 % 1016,8 hPa 0,0 l/m 0 min 0 min 0 W/m 3,2 km/h (1 Bft) 95,74 %
28.09.2023 23:00 17,7 C 16,7 C 13,3 C 91 % 1016,9 hPa 0,0 l/m 0 min 0 min 0 W/m 3,2 km/h (1 Bft) 97,87 %
28.09.2023 23:02 17,7 C 16,7 C 13,3 C 91 % 1016,8 hPa 0,0 l/m 0 min 0 min 0 W/m 6,4 km/h (2 Bft) 93,62 %
28.09.2023 23:04 17,7 C 16,7 C 13,3 C 91 % 1016,8 hPa 0,0 l/m 0 min 0 min 0 W/m 3,2 km/h (1 Bft) 95,35 %
28.09.2023 23:10 17,6 C 16,7 C 13,3 C 91 % 1016,8 hPa 0,0 l/m 0 min 0 min 0 W/m 6,4 km/h (2 Bft) 94,67 %
28.09.2023 23:12 17,6 C 16,7 C 13,3 C 91 % 1016,9 hPa 0,0 l/m 0 min 0 min 0 W/m 3,2 km/h (1 Bft) 93,48 %
28.09.2023 23:14 17,6 C 16,7 C 13,3 C 91 % 1016,9 hPa 0,0 l/m 0 min 0 min 0 W/m 3,2 km/h (1 Bft) 95,74 %
28.09.2023 23:16 17,6 C 16,7 C 13,3 C 91 % 1016,9 hPa 0,0 l/m 0 min 0 min 0 W/m 3,2 km/h (1 Bft) 95,74 %
28.09.2023 23:18 17,6 C 16,7 C 13,3 C 91 % 1016,9 hPa 0,0 l/m 0 min 0 min 0 W/m 0,0 km/h (0 Bft) 93,62 %
28.09.2023 23:20 17,6 C 16,7 C 13,3 C 91 % 1016,9 hPa 0,0 l/m 0 min 0 min 0 W/m 3,2 km/h (1 Bft) 95,74 %
28.09.2023 23:22 17,6 C 16,7 C 13,3 C 91 % 1017,0 hPa 0,0 l/m 0 min 0 min 0 W/m 3,2 km/h (1 Bft) 95,74 %
28.09.2023 23:24 17,6 C 16,7 C 12,8 C 92 % 1017,0 hPa 0,0 l/m 0 min 0 min 0 W/m 3,2 km/h (1 Bft) 93,62 %
28.09.2023 23:26 17,6 C 16,7 C 12,8 C 92 % 1016,9 hPa 0,0 l/m 0 min 0 min 0 W/m 0,0 km/h (0 Bft) 97,87 %
28.09.2023 23:28 17,5 C 16,1 C 12,8 C 92 % 1016,9 hPa 0,0 l/m 0 min 0 min 0 W/m 0,0 km/h (0 Bft) 97,14 %
28.09.2023 23:30 17,5 C 16,1 C 12,8 C 92 % 1016,9 hPa 0,0 l/m 0 min 0 min 0 W/m 3,2 km/h (1 Bft) 93,62 %
28.09.2023 23:32 17,5 C 16,1 C 12,8 C 92 % 1017,0 hPa 0,0 l/m 0 min 0 min 0 W/m 3,2 km/h (1 Bft) 95,74 %
28.09.2023 23:34 17,5 C 16,1 C 12,8 C 92 % 1016,9 hPa 0,0 l/m 0 min 0 min 0 W/m 3,2 km/h (1 Bft) 100,00 %
28.09.2023 23:36 17,4 C 16,1 C 12,8 C 92 % 1016,9 hPa 0,0 l/m 0 min 0 min 0 W/m 3,2 km/h (1 Bft) 100,00 %
28.09.2023 23:38 17,4 C 16,1 C 12,8 C 92 % 1016,8 hPa 0,0 l/m 0 min 0 min 0 W/m 3,2 km/h (1 Bft) 97,83 %
28.09.2023 23:40 17,4 C 16,1 C 12,8 C 92 % 1016,9 hPa 0,0 l/m 0 min 0 min 0 W/m 0,0 km/h (0 Bft) 93,62 %
28.09.2023 23:42 17,4 C 16,1 C 12,8 C 92 % 1016,8 hPa 0,0 l/m 0 min 0 min 0 W/m 3,2 km/h (1 Bft) 95,74 %
28.09.2023 23:44 17,4 C 16,1 C 12,8 C 92 % 1016,8 hPa 0,0 l/m 0 min 0 min 0 W/m 3,2 km/h (1 Bft) 97,87 %
28.09.2023 23:46 17,4 C 16,1 C 12,8 C 92 % 1016,8 hPa 0,0 l/m 0 min 0 min 0 W/m 0,0 km/h (0 Bft) 97,87 %
28.09.2023 23:48 17,4 C 16,1 C 12,8 C 92 % 1016,9 hPa 0,0 l/m 0 min 0 min 0 W/m 3,2 km/h (1 Bft) 95,74 %
28.09.2023 23:50 17,4 C 16,1 C 12,8 C 92 % 1016,8 hPa 0,0 l/m 0 min 0 min 0 W/m 3,2 km/h (1 Bft) 97,87 %
28.09.2023 23:52 17,3 C 16,1 C 12,8 C 92 % 1016,8 hPa 0,0 l/m 0 min 0 min 0 W/m 3,2 km/h (1 Bft) 97,87 %
28.09.2023 23:54 17,3 C 16,7 C 12,8 C 92 % 1016,7 hPa 0,0 l/m 0 min 0 min 0 W/m 6,4 km/h (2 Bft) 97,87 %
28.09.2023 23:56 17,3 C 16,7 C 12,8 C 92 % 1016,7 hPa 0,0 l/m 0 min 0 min 0 W/m 6,4 km/h (2 Bft) 97,87 %
28.09.2023 23:58 17,3 C 16,7 C 12,8 C 92 % 1016,8 hPa 0,0 l/m 0 min 0 min 0 W/m 6,4 km/h (2 Bft) 95,74 %
_ Min-Zeit 07:18 06:32 06:48 14:14 01:20 - - - - 05:10 07:14
Minimum _ 16,1 C 15,0 C 11,1 C 76 % 1013,9 hPa - - - - 0,0 km/h (0 Bft) 74,19 %
_ Max-Zeit 16:22 11:40 11:40 09:24 12:16 00:00 16:10 00:00 11:46 11:10 00:48
Maximum _ 21,8 C 23,9 C 18,9 C 93 % 1018,8 hPa 0,0 l/m 5 min 0 min 559 W/m 22,5 km/h
S (4 Bft)
100,00 %
Durchschnitt _ 19,0 C 18,3 C 14,4 C 85 % 1016,8 hPa #0,0 l/m #1:33 h #0 min. 159 W/m 5,7 km/h (1 Bft) 97,33 %
© 2023 W. Hausmann